FW4143 Weather Reports


time (UTC)temp
C
wind
direction
speed
KPH
gust
KPH
rain 1hr
cm
rain 24hr
cm
rain mn
cm
humidity
%
barometer
mb
20260507190005 17 211 9.7 17.7 0.00 0.00 0.00 42 1017.9
20260507185925 17 210 8.0 17.7 0.00 0.00 0.00 42 1018.0
20260507185804 17 206 8.0 17.7 0.00 0.00 0.00 42 1017.9
20260507185704 17 207 8.0 17.7 0.00 0.00 0.00 42 1017.9
20260507185604 17 205 8.0 16.1 0.00 0.00 0.00 41 1017.8
20260507185525 17 204 8.0 16.1 0.00 0.00 0.00 41 1017.7
20260507185404 17 201 8.0 16.1 0.00 0.00 0.00 42 1017.7
20260507185306 17 201 8.0 16.1 0.00 0.00 0.00 42 1017.8
20260507185204 17 200 8.0 16.1 0.00 0.00 0.00 42 1017.8
20260507185104 17 198 8.0 16.1 0.00 0.00 0.00 42 1017.9
20260507185004 17 196 9.7 16.1 0.00 0.00 0.00 41 1017.9
20260507184904 17 199 9.7 16.1 0.00 0.00 0.00 42 1017.9
20260507184804 17 201 9.7 16.1 0.00 0.00 0.00 42 1017.9
20260507184704 17 202 9.7 17.7 0.00 0.00 0.00 42 1017.9
20260507184604 17 205 9.7 17.7 0.00 0.00 0.00 42 1018.0
20260507184504 17 206 9.7 17.7 0.00 0.00 0.00 42 1018.0
20260507184404 17 204 9.7 17.7 0.00 0.00 0.00 42 1018.0
20260507184304 17 204 9.7 17.7 0.00 0.00 0.00 42 1018.1
20260507184204 17 203 8.0 17.7 0.00 0.00 0.00 42 1018.1
20260507184104 17 203 8.0 17.7 0.00 0.00 0.00 41 1018.1
20260507184025 17 207 8.0 17.7 0.00 0.00 0.00 42 1018.1
20260507183904 17 208 8.0 17.7 0.00 0.00 0.00 41 1018.2
20260507183804 17 205 8.0 17.7 0.00 0.00 0.00 41 1018.1
20260507183704 17 200 9.7 20.9 0.00 0.00 0.00 41 1018.1
20260507183625 17 198 9.7 20.9 0.00 0.00 0.00 41 1018.1
20260507183504 17 198 9.7 20.9 0.00 0.00 0.00 40 1018.1
20260507183425 17 198 9.7 20.9 0.00 0.00 0.00 40 1018.1
20260507183304 17 198 9.7 20.9 0.00 0.00 0.00 40 1018.1
20260507183204 17 199 9.7 20.9 0.00 0.00 0.00 40 1018.1
20260507183104 17 197 9.7 22.5 0.00 0.00 0.00 40 1018.0
20260507183004 17 195 9.7 22.5 0.00 0.00 0.00 40 1018.1
20260507182904 17 194 11.3 22.5 0.00 0.00 0.00 40 1018.0
20260507182804 17 194 9.7 22.5 0.00 0.00 0.00 40 1018.0
20260507182704 17 197 8.0 22.5 0.00 0.00 0.00 39 1017.9
20260507182604 17 198 8.0 22.5 0.00 0.00 0.00 38 1017.9
20260507182504 17 197 6.4 22.5 0.00 0.00 0.00 38 1017.9
20260507182404 17 196 6.4 22.5 0.00 0.00 0.00 38 1017.9
20260507182306 17 194 4.8 22.5 0.00 0.00 0.00 38 1017.9
20260507182204 17 188 4.8 22.5 0.00 0.00 0.00 38 1018.0
20260507182104 17 188 3.2 20.9 0.00 0.00 0.00 38 1018.0
20260507182004 17 189 1.6 20.9 0.00 0.00 0.00 38 1018.0
20260507181904 17 184 1.6 20.9 0.00 0.00 0.00 38 1018.0
20260507181804 17 201 1.6 11.3 0.00 0.00 0.00 38 1018.1
20260507181704 17 198 0.0 11.3 0.00 0.00 0.00 36 1018.2
20260507181625 17 199 1.6 11.3 0.00 0.00 0.00 37 1018.2
20260507181504 17 204 1.6 14.5 0.00 0.00 0.00 36 1018.3
20260507181425 17 205 1.6 14.5 0.00 0.00 0.00 36 1018.2
20260507181304 17 205 1.6 14.5 0.00 0.00 0.00 37 1018.2
20260507181225 17 205 1.6 14.5 0.00 0.00 0.00 37 1018.0
20260507181104 17 205 1.6 14.5 0.00 0.00 0.00 37 1018.0
20260507181004 17 204 1.6 14.5 0.00 0.00 0.00 37 1018.0
20260507180904 17 205 1.6 14.5 0.00 0.00 0.00 37 1017.9
20260507180804 17 205 1.6 14.5 0.00 0.00 0.00 36 1017.8
20260507180704 17 208 1.6 14.5 0.00 0.00 0.00 36 1017.8
20260507180604 17 208 1.6 14.5 0.00 0.00 0.00 37 1017.7
20260507180504 17 206 1.6 11.3 0.00 0.00 0.00 37 1017.8
20260507180404 17 204 1.6 11.3 0.00 0.00 0.00 37 1017.8
20260507180304 17 205 1.6 11.3 0.00 0.00 0.00 36 1017.8
20260507180204 17 206 1.6 11.3 0.00 0.00 0.00 36 1017.7
20260507180104 17 204 1.6 11.3 0.00 0.00 0.00 37 1017.7
20260507180004 17 205 1.6 11.3 0.00 0.00 0.00 37 1017.7
20260507175925 17 205 1.6 11.3 0.00 0.00 0.00 37 1017.7
20260507175804 17 204 0.0 8.0 0.00 0.00 0.00 36 1017.7
20260507175726 17 204 0.0 8.0 0.00 0.00 0.00 36 1017.8
20260507175625 17 210 0.0 8.0 0.00 0.00 0.00 36 1017.8
20260507175504 17 212 0.0 8.0 0.00 0.00 0.00 34 1017.9
20260507175404 17 219 0.0 4.8 0.00 0.00 0.00 34 1017.9
20260507175307 17 216 0.0 4.8 0.00 0.00 0.00 34 1018.0
20260507175204 17 218 0.0 6.4 0.00 0.00 0.00 34 1018.0
20260507175104 17 220 0.0 12.9 0.00 0.00 0.00 33 1018.1
20260507175025 17 221 0.0 12.9 0.00 0.00 0.00 33 1018.1
20260507174904 17 221 0.0 12.9 0.00 0.00 0.00 34 1018.1
20260507174825 17 220 0.0 12.9 0.00 0.00 0.00 33 1018.1
20260507174704 16 221 1.6 12.9 0.00 0.00 0.00 34 1018.0
20260507174604 16 219 1.6 12.9 0.00 0.00 0.00 33 1018.1
20260507174504 16 220 1.6 12.9 0.00 0.00 0.00 34 1018.1
20260507174405 16 219 1.6 12.9 0.00 0.00 0.00 34 1018.1
20260507174304 16 219 1.6 12.9 0.00 0.00 0.00 35 1018.0
20260507174204 16 219 0.0 12.9 0.00 0.00 0.00 34 1018.0
20260507174104 16 219 0.0 11.3 0.00 0.00 0.00 34 1018.0
20260507174004 16 219 0.0 11.3 0.00 0.00 0.00 34 1017.8
20260507173904 16 218 1.6 9.7 0.00 0.00 0.00 33 1017.8
20260507173804 16 217 1.6 12.9 0.00 0.00 0.00 34 1017.9
20260507173704 16 215 0.0 12.9 0.00 0.00 0.00 33 1018.1
20260507173604 16 216 0.0 12.9 0.00 0.00 0.00 32 1018.2
20260507173525 16 216 0.0 12.9 0.00 0.00 0.00 33 1018.2
20260507173404 16 218 0.0 12.9 0.00 0.00 0.00 33 1018.2
20260507173304 16 217 0.0 12.9 0.00 0.00 0.00 33 1018.2
20260507173204 16 218 0.0 12.9 0.00 0.00 0.00 34 1018.2
20260507173125 16 215 0.0 12.9 0.00 0.00 0.00 34 1018.2
20260507173004 16 214 0.0 12.9 0.00 0.00 0.00 33 1018.2
20260507172904 16 211 0.0 12.9 0.00 0.00 0.00 31 1018.1
20260507172804 16 221 0.0 8.0 0.00 0.00 0.00 31 1017.9
20260507172725 16 220 0.0 8.0 0.00 0.00 0.00 31 1017.8
20260507172604 16 214 0.0 8.0 0.00 0.00 0.00 32 1017.8
20260507172504 16 219 0.0 8.0 0.00 0.00 0.00 32 1017.8
20260507172404 16 222 0.0 8.0 0.00 0.00 0.00 33 1018.0
20260507172307 16 227 0.0 8.0 0.00 0.00 0.00 34 1018.2
20260507172204 16 227 0.0 8.0 0.00 0.00 0.00 33 1018.2
20260507172104 16 218 0.0 19.3 0.00 0.00 0.00 32 1018.1
20260507172004 16 217 0.0 19.3 0.00 0.00 0.00 33 1018.0
20260507171904 16 215 1.6 19.3 0.00 0.00 0.00 33 1017.9
20260507171804 16 202 1.6 19.3 0.00 0.00 0.00 33 1018.0
20260507171704 16 201 1.6 19.3 0.00 0.00 0.00 32 1018.0
20260507171604 16 200 1.6 19.3 0.00 0.00 0.00 32 1018.0
20260507171504 16 196 1.6 19.3 0.00 0.00 0.00 32 1017.9
20260507171404 16 195 1.6 19.3 0.00 0.00 0.00 32 1017.8
20260507171304 16 191 1.6 19.3 0.00 0.00 0.00 33 1018.0
20260507171204 16 192 1.6 19.3 0.00 0.00 0.00 32 1018.2
20260507171104 16 191 0.0 19.3 0.00 0.00 0.00 32 1018.4
20260507171004 16 183 0.0 11.3 0.00 0.00 0.00 32 1018.7
20260507170904 16 180 0.0 11.3 0.00 0.00 0.00 32 1018.8
20260507170804 16 203 0.0 6.4 0.00 0.00 0.00 31 1018.8
20260507170704 16 205 0.0 6.4 0.00 0.00 0.00 31 1018.8
20260507170604 16 202 0.0 6.4 0.00 0.00 0.00 31 1018.7
20260507170504 16 205 0.0 9.7 0.00 0.00 0.00 32 1018.6
20260507170404 16 203 0.0 9.7 0.00 0.00 0.00 31 1018.6
20260507170304 16 202 0.0 9.7 0.00 0.00 0.00 30 1018.5
20260507170204 16 211 1.6 17.7 0.00 0.00 0.00 30 1018.5
20260507170104 16 215 1.6 17.7 0.00 0.00 0.00 30 1018.6
20260507170025 16 215 1.6 17.7 0.00 0.00 0.00 29 1018.5
20260507165904 16 214 1.6 17.7 0.00 0.00 0.00 30 1018.4
20260507165804 16 213 1.6 17.7 0.00 0.00 0.00 30 1018.5
20260507165704 16 210 3.2 17.7 0.00 0.00 0.00 29 1018.5
20260507165604 16 209 3.2 17.7 0.00 0.00 0.00 29 1018.5
20260507165525 16 209 3.2 17.7 0.00 0.00 0.00 29 1018.4
20260507165425 16 210 3.2 17.7 0.00 0.00 0.00 29 1018.2
20260507165306 16 209 3.2 17.7 0.00 0.00 0.00 29 1018.0
20260507165204 16 205 1.6 17.7 0.00 0.00 0.00 28 1018.0
20260507165104 16 202 1.6 17.7 0.00 0.00 0.00 28 1018.0
20260507165004 16 202 1.6 17.7 0.00 0.00 0.00 28 1018.1
20260507164904 16 194 1.6 14.5 0.00 0.00 0.00 28 1018.2
20260507164825 16 194 1.6 14.5 0.00 0.00 0.00 28 1018.3
20260507164704 16 194 1.6 14.5 0.00 0.00 0.00 24 1018.3
20260507164605 16 194 1.6 12.9 0.00 0.00 0.00 24 1018.2
20260507164504 16 194 1.6 12.9 0.00 0.00 0.00 23 1018.2
20260507164404 16 193 1.6 12.9 0.00 0.00 0.00 23 1018.2
20260507164304 15 193 1.6 12.9 0.00 0.00 0.00 22 1018.4
20260507164225 15 193 1.6 12.9 0.00 0.00 0.00 23 1018.6
20260507164104 15 190 1.6 12.9 0.00 0.00 0.00 23 1018.8
20260507164004 15 191 1.6 12.9 0.00 0.00 0.00 23 1018.9
20260507163904 15 186 1.6 12.9 0.00 0.00 0.00 23 1018.9
20260507163804 15 182 1.6 12.9 0.00 0.00 0.00 23 1018.9
20260507163704 15 179 0.0 12.9 0.00 0.00 0.00 22 1018.9
20260507163604 15 176 1.6 14.5 0.00 0.00 0.00 22 1019.1
20260507163504 15 165 1.6 14.5 0.00 0.00 0.00 20 1019.3
20260507163404 15 163 1.6 17.7 0.00 0.00 0.00 20 1019.5
20260507163325 15 163 1.6 17.7 0.00 0.00 0.00 20 1019.6
20260507163204 15 162 1.6 17.7 0.00 0.00 0.00 21 1019.7
20260507163104 15 162 1.6 17.7 0.00 0.00 0.00 22 1019.8
20260507163004 15 161 1.6 17.7 0.00 0.00 0.00 23 1019.9
20260507162904 15 164 1.6 17.7 0.00 0.00 0.00 24 1019.8
20260507162804 15 167 1.6 17.7 0.00 0.00 0.00 24 1019.7
20260507162704 15 167 1.6 17.7 0.00 0.00 0.00 24 1019.6
20260507162604 15 164 1.6 17.7 0.00 0.00 0.00 24 1019.7
20260507162504 15 165 0.0 17.7 0.00 0.00 0.00 22 1019.8
20260507162404 15 174 0.0 9.7 0.00 0.00 0.00 22 1019.8
20260507162307 15 175 0.0 9.7 0.00 0.00 0.00 21 1019.7
20260507162204 15 174 0.0 12.9 0.00 0.00 0.00 22 1019.4
20260507162104 15 173 0.0 12.9 0.00 0.00 0.00 23 1019.2
20260507162004 15 173 0.0 12.9 0.00 0.00 0.00 23 1019.1
20260507161904 15 172 0.0 12.9 0.00 0.00 0.00 23 1019.1
20260507161804 15 168 0.0 12.9 0.00 0.00 0.00 22 1019.1
20260507161704 15 171 0.0 12.9 0.00 0.00 0.00 22 1019.1
20260507161604 15 171 0.0 12.9 0.00 0.00 0.00 22 1019.3
20260507161525 15 171 0.0 12.9 0.00 0.00 0.00 22 1019.3
20260507161404 15 171 0.0 12.9 0.00 0.00 0.00 23 1019.4
20260507161304 15 180 0.0 12.9 0.00 0.00 0.00 24 1019.3
20260507161225 15 184 0.0 9.7 0.00 0.00 0.00 23 1019.3
20260507161104 15 196 0.0 9.7 0.00 0.00 0.00 23 1019.1
20260507161004 15 197 0.0 9.7 0.00 0.00 0.00 24 1019.1
20260507160904 15 191 1.6 12.9 0.00 0.00 0.00 24 1019.1
20260507160825 15 193 1.6 12.9 0.00 0.00 0.00 24 1019.1
20260507160704 15 193 1.6 12.9 0.00 0.00 0.00 24 1019.2
20260507160604 15 194 1.6 12.9 0.00 0.00 0.00 24 1019.3
20260507160504 15 194 1.6 12.9 0.00 0.00 0.00 24 1019.4
20260507160404 15 194 1.6 12.9 0.00 0.00 0.00 24 1019.4
20260507160304 15 194 1.6 12.9 0.00 0.00 0.00 23 1019.3
20260507160204 15 194 1.6 12.9 0.00 0.00 0.00 24 1019.1
20260507160125 15 193 1.6 12.9 0.00 0.00 0.00 24 1019.1
20260507160025 15 191 1.6 12.9 0.00 0.00 0.00 24 1019.1
20260507155904 15 197 0.0 12.9 0.00 0.00 0.00 22 1019.2
20260507155804 15 192 0.0 12.9 0.00 0.00 0.00 20 1019.2
20260507155704 15 193 0.0 12.9 0.00 0.00 0.00 19 1019.1
20260507155604 15 182 0.0 14.5 0.00 0.00 0.00 17 1019.2
20260507155504 15 185 0.0 14.5 0.00 0.00 0.00 16 1019.2
20260507155404 15 185 0.0 14.5 0.00 0.00 0.00 16 1019.3
20260507155306 15 185 0.0 14.5 0.00 0.00 0.00 17 1019.3
20260507155204 15 191 0.0 14.5 0.00 0.00 0.00 17 1019.3
20260507155104 15 193 0.0 14.5 0.00 0.00 0.00 17 1019.3
20260507155004 15 193 0.0 14.5 0.00 0.00 0.00 18 1019.5
20260507154904 15 191 0.0 14.5 0.00 0.00 0.00 18 1019.5
20260507154804 15 185 1.6 14.5 0.00 0.00 0.00 18 1019.5
20260507154704 15 179 1.6 14.5 0.00 0.00 0.00 18 1019.6
20260507154604 15 179 3.2 19.3 0.00 0.00 0.00 18 1019.6
20260507154504 15 179 3.2 19.3 0.00 0.00 0.00 17 1019.6
20260507154425 15 179 3.2 19.3 0.00 0.00 0.00 18 1019.5
20260507154325 15 179 3.2 19.3 0.00 0.00 0.00 18 1019.5
20260507154225 15 179 3.2 19.3 0.00 0.00 0.00 18 1019.4
20260507154104 15 180 3.2 19.3 0.00 0.00 0.00 17 1019.4
20260507154004 15 179 4.8 19.3 0.00 0.00 0.00 18 1019.3
20260507153904 15 179 3.2 19.3 0.00 0.00 0.00 16 1019.3
20260507153804 15 179 3.2 19.3 0.00 0.00 0.00 16 1019.3
20260507153705 15 181 1.6 19.3 0.00 0.00 0.00 16 1019.3
20260507153604 15 185 1.6 14.5 0.00 0.00 0.00 15 1019.3
20260507153525 15 184 1.6 14.5 0.00 0.00 0.00 14 1019.3
20260507153404 15 186 1.6 14.5 0.00 0.00 0.00 14 1019.2
20260507153304 15 189 1.6 14.5 0.00 0.00 0.00 13 1019.2
20260507153204 15 187 1.6 9.7 0.00 0.00 0.00 12 1019.2
20260507153125 15 188 0.0 9.7 0.00 0.00 0.00 11 1019.2
20260507153004 15 191 0.0 9.7 0.00 0.00 0.00 10 1019.3
20260507152904 15 189 1.6 16.1 0.00 0.00 0.00 9 1019.3
20260507152805 15 184 1.6 16.1 0.00 0.00 0.00 10 1019.3
20260507152704 15 181 1.6 16.1 0.00 0.00 0.00 9 1019.2
20260507152604 15 176 1.6 16.1 0.00 0.00 0.00 9 1019.2
20260507152504 15 176 1.6 16.1 0.00 0.00 0.00 8 1019.2
20260507152404 15 174 1.6 16.1 0.00 0.00 0.00 7 1019.1
20260507152306 15 171 1.6 16.1 0.00 0.00 0.00 6 1019.1
20260507152204 15 170 1.6 16.1 0.00 0.00 0.00 6 1019.2
20260507152104 15 168 1.6 16.1 0.00 0.00 0.00 5 1019.2
20260507152004 15 176 3.2 16.1 0.00 0.00 0.00 5 1019.2
20260507151904 15 184 3.2 24.1 0.00 0.00 0.00 4 1019.2
20260507151804 15 183 4.8 24.1 0.00 0.00 0.00 3 1019.2
20260507151704 15 184 6.4 24.1 0.00 0.00 0.00 2 1019.1
20260507151604 15 186 4.8 24.1 0.00 0.00 0.00 1 1019.1
20260507151504 15 186 6.4 24.1 0.00 0.00 0.00 1 1019.1
20260507151404 15 186 8.0 25.7 0.00 0.00 0.00 1 1019.1
20260507151304 15 185 8.0 25.7 0.00 0.00 0.00 1 1019.1
20260507151204 15 185 8.0 25.7 0.00 0.00 0.00 1 1019.1
20260507151104 15 185 8.0 25.7 0.00 0.00 0.00 1 1019.1
20260507151004 15 186 8.0 25.7 0.00 0.00 0.00 1 1019.1
20260507150904 15 183 6.4 25.7 0.00 0.00 0.00 1 1019.0
20260507150804 15 183 4.8 25.7 0.00 0.00 0.00 1 1019.1
20260507150704 15 183 4.8 25.7 0.00 0.00 0.00 1 1019.1
20260507150625 15 181 4.8 25.7 0.00 0.00 0.00 1 1019.1
20260507150525 15 179 3.2 25.7 0.00 0.00 0.00 1 1019.1
20260507150425 15 178 1.6 24.1 0.00 0.00 0.00 1 1019.1
20260507150304 15 176 1.6 14.5 0.00 0.00 0.00 1 1019.1
20260507150204 15 175 1.6 14.5 0.00 0.00 0.00 1 1019.1
20260507150125 15 174 1.6 14.5 0.00 0.00 0.00 1 1019.1
20260507150005 15 170 1.6 14.5 0.00 0.00 0.00 1 1019.2
20260507145925 15 168 1.6 14.5 0.00 0.00 0.00 1 1019.3
20260507145804 15 166 0.0 14.5 0.00 0.00 0.00 1 1019.3
20260507145725 15 166 0.0 14.5 0.00 0.00 0.00 1 1019.3
20260507145625 15 164 0.0 14.5 0.00 0.00 0.00 1 1019.3
20260507145504 15 191 0.0 11.3 0.00 0.00 0.00 1 1019.3
20260507145425 15 192 0.0 11.3 0.00 0.00 0.00 1 1019.2
20260507145325 15 192 0.0 11.3 0.00 0.00 0.00 1 1019.2
20260507145204 15 185 0.0 11.3 0.00 0.00 0.00 1 1019.2
20260507145125 15 185 0.0 11.3 0.00 0.00 0.00 1 1019.2
20260507145025 15 185 1.6 11.3 0.00 0.00 0.00 1 1019.2
20260507144904 15 181 1.6 11.3 0.00 0.00 0.00 1 1019.2
20260507144804 15 179 1.6 11.3 0.00 0.00 0.00 1 1019.2
20260507144704 15 183 1.6 11.3 0.00 0.00 0.00 1 1019.2
20260507144604 15 189 1.6 12.9 0.00 0.00 0.00 1 1019.2
20260507144504 15 187 1.6 12.9 0.00 0.00 0.00 1 1019.2
20260507144404 15 189 1.6 12.9 0.00 0.00 0.00 1 1019.1
20260507144304 15 190 1.6 12.9 0.00 0.00 0.00 1 1019.1
20260507144204 15 192 1.6 12.9 0.00 0.00 0.00 1 1019.2
20260507144104 15 184 3.2 19.3 0.00 0.00 0.00 1 1019.1
20260507144004 15 181 4.8 20.9 0.00 0.00 0.00 1 1019.1
20260507143904 15 183 6.4 20.9 0.00 0.00 0.00 1 1019.1
20260507143804 15 185 6.4 20.9 0.00 0.00 0.00 1 1019.0
20260507143704 15 185 8.0 20.9 0.00 0.00 0.00 1 1018.9
20260507143604 15 183 8.0 20.9 0.00 0.00 0.00 1 1018.8
20260507143504 15 185 9.7 24.1 0.00 0.00 0.00 1 1018.7
20260507143404 15 184 11.3 24.1 0.00 0.00 0.00 1 1018.7
20260507143304 15 185 11.3 24.1 0.00 0.00 0.00 1 1018.6
20260507143204 15 187 11.3 24.1 0.00 0.00 0.00 1 1018.5
20260507143104 15 189 11.3 24.1 0.00 0.00 0.00 1 1018.4
20260507143004 15 192 9.7 24.1 0.00 0.00 0.00 1 1018.5
20260507142904 15 192 8.0 24.1 0.00 0.00 0.00 1 1018.5
20260507142804 15 192 6.4 24.1 0.00 0.00 0.00 1 1018.6
20260507142704 15 191 6.4 24.1 0.00 0.00 0.00 1 1018.6
20260507142625 15 195 4.8 24.1 0.00 0.00 0.00 1 1018.7
20260507142504 15 192 4.8 14.5 0.00 0.00 0.00 1 1018.7
20260507142404 15 195 3.2 14.5 0.00 0.00 0.00 1 1018.7
20260507142306 15 192 3.2 14.5 0.00 0.00 0.00 1 1018.7
20260507142204 15 183 1.6 14.5 0.00 0.00 0.00 1 1018.7
20260507142104 15 178 1.6 14.5 0.00 0.00 0.00 1 1018.7
20260507142025 15 178 1.6 14.5 0.00 0.00 0.00 1 1018.7
20260507141904 15 183 3.2 16.1 0.00 0.00 0.00 1 1018.7
20260507141804 15 183 3.2 16.1 0.00 0.00 0.00 1 1018.8
20260507141704 15 183 3.2 16.1 0.00 0.00 0.00 1 1018.7
20260507141604 15 186 3.2 19.3 0.00 0.00 0.00 1 1018.8
20260507141504 15 191 3.2 19.3 0.00 0.00 0.00 1 1018.8
20260507141404 15 191 4.8 19.3 0.00 0.00 0.00 1 1018.8
20260507141304 15 189 4.8 19.3 0.00 0.00 0.00 1 1018.9
20260507141204 15 187 4.8 19.3 0.00 0.00 0.00 1 1018.9
20260507141104 15 188 4.8 19.3 0.00 0.00 0.00 1 1018.8
20260507141004 15 188 4.8 19.3 0.00 0.00 0.00 1 1018.8
20260507140925 15 186 3.2 19.3 0.00 0.00 0.00 1 1018.8
20260507140804 15 187 3.2 19.3 0.00 0.00 0.00 1 1018.9
20260507140704 15 187 3.2 19.3 0.00 0.00 0.00 1 1018.9
20260507140604 15 184 3.2 17.7 0.00 0.00 0.00 1 1019.0
20260507140525 15 182 3.2 17.7 0.00 0.00 0.00 1 1018.9
20260507140404 15 179 1.6 16.1 0.00 0.00 0.00 1 1018.9
20260507140304 15 184 1.6 16.1 0.00 0.00 0.00 1 1018.9
20260507140204 15 185 3.2 16.1 0.00 0.00 0.00 1 1018.8
20260507140104 15 179 3.2 20.9 0.00 0.00 0.00 1 1018.8
20260507140004 15 178 4.8 20.9 0.00 0.00 0.00 1 1018.7
20260507135904 15 179 4.8 20.9 0.00 0.00 0.00 1 1018.6
20260507135804 15 179 6.4 25.7 0.00 0.00 0.00 1 1018.5
20260507135704 15 178 8.0 25.7 0.00 0.00 0.00 1 1018.3
20260507135604 15 179 9.7 25.7 0.00 0.00 0.00 1 1018.3
20260507135504 15 180 9.7 25.7 0.00 0.00 0.00 1 1018.2
20260507135404 15 183 11.3 25.7 0.00 0.00 0.00 1 1018.2
20260507135306 15 184 12.9 25.7 0.00 0.00 0.00 1 1018.2
20260507135204 15 186 12.9 25.7 0.00 0.00 0.00 1 1018.1
20260507135104 15 187 14.5 30.6 0.00 0.00 0.00 1 1018.2
20260507135004 15 188 14.5 30.6 0.00 0.00 0.00 1 1018.1
20260507134904 15 187 14.5 30.6 0.00 0.00 0.00 1 1018.2
20260507134825 15 187 14.5 30.6 0.00 0.00 0.00 1 1018.1
20260507134704 15 187 12.9 30.6 0.00 0.00 0.00 1 1018.2
20260507134625 15 187 11.3 30.6 0.00 0.00 0.00 1 1018.2
20260507134504 15 187 11.3 30.6 0.00 0.00 0.00 1 1018.2
20260507134404 15 186 9.7 30.6 0.00 0.00 0.00 1 1018.3
20260507134304 15 185 9.7 30.6 0.00 0.00 0.00 1 1018.2
20260507134204 15 181 8.0 30.6 0.00 0.00 0.00 1 1018.3
20260507134125 15 179 6.4 29.0 0.00 0.00 0.00 1 1018.3
20260507134004 15 176 4.8 27.4 0.00 0.00 0.00 1 1018.2
20260507133904 15 174 4.8 27.4 0.00 0.00 0.00 1 1018.2
20260507133804 15 175 4.8 27.4 0.00 0.00 0.00 1 1018.2
20260507133725 15 175 4.8 27.4 0.00 0.00 0.00 1 1018.2
20260507133604 15 177 4.8 27.4 0.00 0.00 0.00 1 1018.3
20260507133525 15 178 4.8 27.4 0.00 0.00 0.00 1 1018.2
20260507133404 15 178 4.8 27.4 0.00 0.00 0.00 1 1018.2
20260507133304 15 179 4.8 27.4 0.00 0.00 0.00 1 1018.2
20260507133204 16 180 4.8 29.0 0.00 0.00 0.00 1 1018.2
20260507133104 16 188 4.8 29.0 0.00 0.00 0.00 1 1018.2
20260507133025 16 190 6.4 29.0 0.00 0.00 0.00 1 1018.2
20260507132925 16 193 6.4 29.0 0.00 0.00 0.00 1 1018.2
20260507132804 15 193 8.0 29.0 0.00 0.00 0.00 1 1018.2
20260507132704 15 191 9.7 29.0 0.00 0.00 0.00 1 1018.2
20260507132604 15 193 9.7 29.0 0.00 0.00 0.00 1 1018.3
20260507132525 15 192 11.3 29.0 0.00 0.00 0.00 1 1018.2
20260507132425 15 194 12.9 29.0 0.00 0.00 0.00 1 1018.2
20260507132307 15 193 14.5 29.0 0.00 0.00 0.00 1 1018.2
20260507132205 15 192 14.5 29.0 0.00 0.00 0.00 1 1018.2
20260507132125 15 191 14.5 29.0 0.00 0.00 0.00 1 1018.3
20260507132004 15 188 14.5 29.0 0.00 0.00 0.00 1 1018.3
20260507131905 15 187 14.5 29.0 0.00 0.00 0.00 1 1018.3
20260507131825 15 186 14.5 29.0 0.00 0.00 0.00 1 1018.4
20260507131704 15 186 12.9 29.0 0.00 0.00 0.00 1 1018.4
20260507131604 15 184 12.9 29.0 0.00 0.00 0.00 1 1018.4
20260507131504 15 183 12.9 29.0 0.00 0.00 0.00 1 1018.5
20260507131404 15 179 11.3 29.0 0.00 0.00 0.00 1 1018.5
20260507131304 15 180 9.7 27.4 0.00 0.00 0.00 1 1018.6
20260507131204 15 182 9.7 25.7 0.00 0.00 0.00 1 1018.6
20260507131104 15 181 9.7 25.7 0.00 0.00 0.00 1 1018.6
20260507131004 15 182 11.3 25.7 0.00 0.00 0.00 1 1018.6
20260507130904 15 183 11.3 25.7 0.00 0.00 0.00 1 1018.6
20260507130804 15 185 11.3 25.7 0.00 0.00 0.00 1 1018.6
20260507130704 15 185 11.3 25.7 0.00 0.00 0.00 1 1018.6
20260507130604 15 186 11.3 25.7 0.00 0.00 0.00 1 1018.5
20260507130504 15 186 12.9 27.4 0.00 0.00 0.00 1 1018.4
20260507130404 15 186 12.9 27.4 0.00 0.00 0.00 1 1018.4
20260507130304 15 186 11.3 27.4 0.00 0.00 0.00 1 1018.3
20260507130204 15 185 9.7 27.4 0.00 0.00 0.00 1 1018.2
20260507130104 15 185 9.7 27.4 0.00 0.00 0.00 1 1018.1
20260507130004 15 184 9.7 27.4 0.00 0.00 0.00 1 1018.1
20260507125904 15 183 9.7 27.4 0.00 0.00 0.00 1 1018.1
20260507125804 15 180 8.0 27.4 0.00 0.00 0.00 1 1018.1
20260507125704 15 180 8.0 27.4 0.00 0.00 0.00 1 1018.2
20260507125604 15 180 8.0 27.4 0.00 0.00 0.00 1 1018.3
20260507125504 15 178 8.0 24.1 0.00 0.00 0.00 1 1018.3
20260507125404 15 181 9.7 24.1 0.00 0.00 0.00 1 1018.3
20260507125306 15 183 11.3 24.1 0.00 0.00 0.00 1 1018.4
20260507125204 15 186 11.3 24.1 0.00 0.00 0.00 1 1018.4
20260507125104 15 185 12.9 24.1 0.00 0.00 0.00 1 1018.5
20260507125025 15 185 12.9 24.1 0.00 0.00 0.00 1 1018.5
20260507124904 15 186 12.9 24.1 0.00 0.00 0.00 1 1018.5
20260507124804 15 187 11.3 24.1 0.00 0.00 0.00 1 1018.4
20260507124704 15 188 12.9 24.1 0.00 0.00 0.00 1 1018.4
20260507124604 15 188 11.3 24.1 0.00 0.00 0.00 1 1018.4
20260507124504 15 188 11.3 24.1 0.00 0.00 0.00 1 1018.4
20260507124404 15 183 11.3 24.1 0.00 0.00 0.00 1 1018.5
20260507124304 15 179 11.3 24.1 0.00 0.00 0.00 1 1018.6
20260507124204 15 175 11.3 24.1 0.00 0.00 0.00 1 1018.5
20260507124104 15 174 11.3 24.1 0.00 0.00 0.00 1 1018.5
20260507124004 15 173 12.9 25.7 0.00 0.00 0.00 1 1018.4
20260507123904 15 172 12.9 25.7 0.00 0.00 0.00 1 1018.3
20260507123804 15 169 14.5 25.7 0.00 0.00 0.00 1 1018.3
20260507123704 15 169 14.5 25.7 0.00 0.00 0.00 1 1018.3
20260507123604 15 168 12.9 25.7 0.00 0.00 0.00 1 1018.3
20260507123504 15 167 12.9 25.7 0.00 0.00 0.00 1 1018.3
20260507123404 15 169 14.5 25.7 0.00 0.00 0.00 1 1018.3
20260507123304 15 171 12.9 25.7 0.00 0.00 0.00 1 1018.3
20260507123204 15 171 11.3 25.7 0.00 0.00 0.00 1 1018.3
20260507123125 15 171 11.3 25.7 0.00 0.00 0.00 1 1018.3
20260507123004 15 173 11.3 24.1 0.00 0.00 0.00 1 1018.3
20260507122904 15 174 9.7 24.1 0.00 0.00 0.00 1 1018.3
20260507122804 15 176 9.7 24.1 0.00 0.00 0.00 1 1018.3
20260507122705 15 175 9.7 24.1 0.00 0.00 0.00 1 1018.3
20260507122604 15 176 9.7 24.1 0.00 0.00 0.00 1 1018.3
20260507122504 15 178 9.7 24.1 0.00 0.00 0.00 1 1018.3
20260507122404 15 180 9.7 24.1 0.00 0.00 0.00 1 1018.2
20260507122325 15 178 9.7 24.1 0.00 0.00 0.00 1 1018.2
20260507122205 15 179 11.3 20.9 0.00 0.00 0.00 1 1018.1
20260507122104 15 178 11.3 25.7 0.00 0.00 0.00 1 1018.0
20260507122004 15 179 11.3 25.7 0.00 0.00 0.00 1 1018.0
20260507121904 15 180 9.7 25.7 0.00 0.00 0.00 1 1017.9
20260507121804 15 180 9.7 25.7 0.00 0.00 0.00 1 1017.9
20260507121704 15 182 9.7 25.7 0.00 0.00 0.00 1 1017.9
20260507121604 15 183 9.7 25.7 0.00 0.00 0.00 1 1017.8
20260507121504 15 183 9.7 25.7 0.00 0.00 0.00 1 1017.8
20260507121425 15 182 9.7 25.7 0.00 0.00 0.00 1 1017.7
20260507121304 15 181 8.0 25.7 0.00 0.00 0.00 1 1017.6
20260507121225 15 181 8.0 25.7 0.00 0.00 0.00 1 1017.5
20260507121104 15 181 6.4 20.9 0.00 0.00 0.00 1 1017.5
20260507121004 15 183 4.8 17.7 0.00 0.00 0.00 1 1017.5
20260507120904 15 181 4.8 17.7 0.00 0.00 0.00 1 1017.4
20260507120804 15 183 3.2 17.7 0.00 0.00 0.00 1 1017.5
20260507120704 15 178 3.2 17.7 0.00 0.00 0.00 1 1017.5
20260507120604 15 171 1.6 17.7 0.00 0.00 0.00 1 1017.5
20260507120525 15 163 1.6 17.7 0.00 0.00 0.00 1 1017.7
20260507120425 15 163 3.2 17.7 0.00 0.00 0.00 1 1017.8
20260507120304 15 168 4.8 25.7 0.00 0.00 0.00 1 1017.8
20260507120204 15 166 6.4 25.7 0.00 0.00 0.00 1 1017.9
20260507120104 15 171 8.0 25.7 0.00 0.00 0.00 1 1017.9
20260507120025 15 173 9.7 25.7 0.00 0.00 0.00 1 1017.9
20260507115904 15 173 11.3 25.7 0.00 0.00 0.00 1 1017.9
20260507115804 15 172 11.3 25.7 0.00 0.00 0.00 1 1017.9
20260507115704 15 171 12.9 25.7 0.00 0.00 0.00 1 1017.8
20260507115604 15 171 14.5 25.7 0.00 0.00 0.00 1 1017.7
20260507115504 15 172 14.5 25.7 0.00 0.00 0.00 1 1017.5
20260507115404 15 171 12.9 24.1 0.00 0.00 0.00 1 1017.5
20260507115307 15 171 12.9 24.1 0.00 0.00 0.00 1 1017.5
20260507115225 15 173 12.9 24.1 0.00 0.00 0.00 1 1017.5
20260507115104 15 171 12.9 24.1 0.00 0.00 0.00 1 1017.5
20260507115004 15 170 12.9 24.1 0.00 0.00 0.00 1 1017.6
20260507114904 15 171 12.9 27.4 0.00 0.00 0.00 1 1017.6
20260507114804 15 172 12.9 27.4 0.00 0.00 0.00 1 1017.6
20260507114704 15 174 12.9 27.4 0.00 0.00 0.00 1 1017.5
20260507114604 15 174 11.3 27.4 0.00 0.00 0.00 1 1017.5
20260507114504 15 174 11.3 27.4 0.00 0.00 0.00 1 1017.5
20260507114404 15 177 11.3 27.4 0.00 0.00 0.00 1 1017.4
20260507114304 15 177 11.3 27.4 0.00 0.00 0.00 1 1017.4
20260507114204 15 173 11.3 27.4 0.00 0.00 0.00 1 1017.3
20260507114125 15 174 11.3 27.4 0.00 0.00 0.00 1 1017.3
20260507114004 15 178 12.9 27.4 0.00 0.00 0.00 1 1017.3
20260507113904 15 176 12.9 24.1 0.00 0.00 0.00 1 1017.3
20260507113804 15 175 12.9 24.1 0.00 0.00 0.00 1 1017.3
20260507113704 15 174 12.9 24.1 0.00 0.00 0.00 1 1017.3
20260507113604 15 173 12.9 24.1 0.00 0.00 0.00 1 1017.4
20260507113504 15 172 12.9 24.1 0.00 0.00 0.00 1 1017.3
20260507113404 15 172 12.9 25.7 0.00 0.00 0.00 1 1017.3
20260507113325 15 172 12.9 25.7 0.00 0.00 0.00 1 1017.3
20260507113225 15 175 12.9 25.7 0.00 0.00 0.00 1 1017.4
20260507113104 15 175 11.3 27.4 0.00 0.00 0.00 1 1017.4
20260507113004 15 171 11.3 27.4 0.00 0.00 0.00 1 1017.4
20260507112904 15 171 11.3 27.4 0.00 0.00 0.00 1 1017.4
20260507112804 15 171 11.3 27.4 0.00 0.00 0.00 1 1017.3
20260507112725 15 173 11.3 27.4 0.00 0.00 0.00 1 1017.2
20260507112625 15 173 12.9 27.4 0.00 0.00 0.00 1 1017.2
20260507112525 15 176 12.9 27.4 0.00 0.00 0.00 1 1017.2
20260507112404 15 173 12.9 27.4 0.00 0.00 0.00 1 1017.3
20260507112307 15 172 12.9 27.4 0.00 0.00 0.00 1 1017.3
20260507112204 15 171 12.9 27.4 0.00 0.00 0.00 1 1017.4
20260507112125 15 171 14.5 25.7 0.00 0.00 0.00 1 1017.3
20260507112004 15 170 14.5 25.7 0.00 0.00 0.00 1 1017.3
20260507111905 15 171 14.5 25.7 0.00 0.00 0.00 1 1017.3
20260507111805 15 171 14.5 25.7 0.00 0.00 0.00 1 1017.2
20260507111704 15 171 14.5 25.7 0.00 0.00 0.00 1 1017.2
20260507111604 15 171 14.5 24.1 0.00 0.00 0.00 1 1017.2
20260507111506 15 171 14.5 24.1 0.00 0.00 0.00 1 1017.1
20260507111404 15 174 14.5 24.1 0.00 0.00 0.00 1 1017.1
20260507111304 15 174 14.5 24.1 0.00 0.00 0.00 1 1017.1
20260507111225 15 175 14.5 24.1 0.00 0.00 0.00 1 1017.1
20260507111104 15 176 14.5 24.1 0.00 0.00 0.00 1 1017.0
20260507111004 15 177 14.5 24.1 0.00 0.00 0.00 1 1017.1
20260507110904 15 177 14.5 24.1 0.00 0.00 0.00 1 1017.1
20260507110804 15 177 12.9 25.7 0.00 0.00 0.00 1 1017.2
20260507110704 15 176 12.9 25.7 0.00 0.00 0.00 1 1017.3
20260507110604 15 175 11.3 25.7 0.00 0.00 0.00 1 1017.3
20260507110504 15 175 11.3 25.7 0.00 0.00 0.00 1 1017.3
20260507110425 15 173 9.7 25.7 0.00 0.00 0.00 1 1017.3
20260507110325 15 169 9.7 25.7 0.00 0.00 0.00 1 1017.3
20260507110204 15 165 9.7 25.7 0.00 0.00 0.00 1 1017.4
20260507110104 15 163 11.3 25.7 0.00 0.00 0.00 1 1017.5
20260507110004 15 164 11.3 25.7 0.00 0.00 0.00 1 1017.6
20260507105904 15 163 9.7 25.7 0.00 0.00 0.00 1 1017.7
20260507105804 15 161 9.7 25.7 0.00 0.00 0.00 1 1017.7
20260507105704 15 161 11.3 25.7 0.00 0.00 0.00 1 1017.6
20260507105604 15 162 11.3 25.7 0.00 0.00 0.00 1 1017.7
20260507105504 15 161 11.3 25.7 0.00 0.00 0.00 1 1017.6
20260507105425 15 161 9.7 25.7 0.00 0.00 0.00 1 1017.5
20260507105306 15 163 9.7 25.7 0.00 0.00 0.00 1 1017.6
20260507105204 15 163 8.0 25.7 0.00 0.00 0.00 1 1017.5
20260507105104 15 164 8.0 20.9 0.00 0.00 0.00 1 1017.6
20260507105025 15 165 8.0 20.9 0.00 0.00 0.00 1 1017.5
20260507104904 15 165 8.0 20.9 0.00 0.00 0.00 1 1017.5
20260507104804 15 165 8.0 20.9 0.00 0.00 0.00 1 1017.6
20260507104704 15 167 9.7 24.1 0.00 0.00 0.00 1 1017.6
20260507104604 15 168 9.7 24.1 0.00 0.00 0.00 1 1017.5
20260507104504 15 169 8.0 24.1 0.00 0.00 0.00 1 1017.5
20260507104404 15 173 9.7 24.1 0.00 0.00 0.00 1 1017.4
20260507104304 15 176 11.3 24.1 0.00 0.00 0.00 1 1017.3
20260507104204 15 176 12.9 24.1 0.00 0.00 0.00 1 1017.3
20260507104104 15 176 12.9 24.1 0.00 0.00 0.00 1 1017.2
20260507104004 15 176 12.9 24.1 0.00 0.00 0.00 1 1017.1
20260507103904 15 179 11.3 24.1 0.00 0.00 0.00 1 1017.0
20260507103804 15 181 11.3 24.1 0.00 0.00 0.00 1 1016.9
20260507103704 15 181 11.3 20.9 0.00 0.00 0.00 1 1016.8
20260507103604 15 182 11.3 20.9 0.00 0.00 0.00 1 1016.7
20260507103504 15 182 11.3 20.9 0.00 0.00 0.00 1 1016.6
20260507103404 15 181 11.3 20.9 0.00 0.00 0.00 1 1016.6
20260507103325 15 180 9.7 19.3 0.00 0.00 0.00 1 1016.6
20260507103204 15 179 9.7 19.3 0.00 0.00 0.00 1 1016.7
20260507103104 15 178 9.7 19.3 0.00 0.00 0.00 1 1016.8
20260507103004 15 178 9.7 19.3 0.00 0.00 0.00 1 1016.9
20260507102904 15 177 9.7 16.1 0.00 0.00 0.00 1 1016.9
20260507102804 15 178 9.7 16.1 0.00 0.00 0.00 1 1017.0
20260507102704 15 180 9.7 16.1 0.00 0.00 0.00 1 1017.1
20260507102604 15 182 9.7 19.3 0.00 0.00 0.00 1 1017.1
20260507102526 15 182 9.7 19.3 0.00 0.00 0.00 1 1017.2
20260507102404 15 181 9.7 27.4 0.00 0.00 0.00 1 1017.2
20260507102306 15 179 11.3 27.4 0.00 0.00 0.00 1 1017.3
20260507102204 15 179 11.3 27.4 0.00 0.00 0.00 1 1017.2
20260507102125 15 181 11.3 27.4 0.00 0.00 0.00 1 1017.2
20260507102006 15 181 11.3 27.4 0.00 0.00 0.00 1 1017.1
20260507101904 15 181 11.3 27.4 0.00 0.00 0.00 1 1017.1
20260507101804 15 180 12.9 27.4 0.00 0.00 0.00 1 1017.0
20260507101725 15 178 12.9 27.4 0.00 0.00 0.00 1 1016.9
20260507101604 15 177 12.9 27.4 0.00 0.00 0.00 1 1016.9
20260507101504 15 179 12.9 27.4 0.00 0.00 0.00 1 1016.9
20260507101425 15 180 12.9 27.4 0.00 0.00 0.00 1 1016.9
20260507101304 15 183 12.9 24.1 0.00 0.00 0.00 1 1016.9
20260507101204 15 184 12.9 24.1 0.00 0.00 0.00 1 1016.9
20260507101125 15 181 12.9 24.1 0.00 0.00 0.00 1 1017.0
20260507101004 15 182 12.9 24.1 0.00 0.00 0.00 1 1016.9
20260507100904 15 183 12.9 24.1 0.00 0.00 0.00 1 1016.9
20260507100804 15 184 11.3 22.5 0.00 0.00 0.00 1 1016.8
20260507100704 15 183 11.3 20.9 0.00 0.00 0.00 1 1016.6
20260507100604 15 182 11.3 20.9 0.00 0.00 0.00 1 1016.6
20260507100525 15 182 11.3 20.9 0.00 0.00 0.00 1 1016.7
20260507100425 15 180 11.3 20.9 0.00 0.00 0.00 1 1016.7
20260507100304 15 180 11.3 22.5 0.00 0.00 0.00 1 1016.7
20260507100204 15 179 9.7 22.5 0.00 0.00 0.00 1 1016.7
20260507100104 15 180 9.7 22.5 0.00 0.00 0.00 1 1016.7
20260507100004 15 181 8.0 22.5 0.00 0.00 0.00 1 1016.8
20260507095904 15 180 6.4 22.5 0.00 0.00 0.00 1 1016.8
20260507095804 15 179 6.4 22.5 0.00 0.00 0.00 1 1016.8
20260507095725 15 181 4.8 22.5 0.00 0.00 0.00 1 1016.7
20260507095604 15 181 3.2 22.5 0.00 0.00 0.00 1 1016.7
20260507095504 15 184 3.2 22.5 0.00 0.00 0.00 1 1016.7
20260507095425 15 186 1.6 22.5 0.00 0.00 0.00 1 1016.6
20260507095325 15 178 1.6 9.7 0.00 0.00 0.00 1 1016.6
20260507095204 15 181 1.6 14.5 0.00 0.00 0.00 1 1016.7
20260507095104 15 174 1.6 14.5 0.00 0.00 0.00 1 1016.8
20260507095004 15 176 1.6 14.5 0.00 0.00 0.00 1 1016.8
20260507094904 15 176 1.6 14.5 0.00 0.00 0.00 1 1016.9
20260507094804 15 181 1.6 14.5 0.00 0.00 0.00 1 1016.8
20260507094704 15 183 1.6 14.5 0.00 0.00 0.00 1 1016.8
20260507094604 15 183 1.6 14.5 0.00 0.00 0.00 1 1016.8
20260507094504 15 183 1.6 14.5 0.00 0.00 0.00 1 1016.8
20260507094404 15 182 1.6 14.5 0.00 0.00 0.00 1 1016.8
20260507094304 15 181 1.6 14.5 0.00 0.00 0.00 1 1016.8
20260507094204 15 178 0.0 12.9 0.00 0.00 0.00 1 1016.8
20260507094125 15 190 0.0 11.3 0.00 0.00 0.00 1 1016.8
20260507094004 15 189 0.0 11.3 0.00 0.00 0.00 1 1016.8
20260507093904 15 188 0.0 11.3 0.00 0.00 0.00 1 1016.8
20260507093804 15 181 0.0 9.7 0.00 0.00 0.00 1 1016.7
20260507093704 15 180 0.0 9.7 0.00 0.00 0.00 1 1016.8
20260507093604 15 173 0.0 9.7 0.00 0.00 0.00 1 1016.7
20260507093504 15 176 1.6 9.7 0.00 0.00 0.00 1 1016.8
20260507093404 15 180 1.6 14.5 0.00 0.00 0.00 1 1016.8
20260507093304 15 180 1.6 14.5 0.00 0.00 0.00 1 1016.9
20260507093204 15 180 1.6 14.5 0.00 0.00 0.00 1 1017.0
20260507093104 15 178 1.6 14.5 0.00 0.00 0.00 1 1017.0
20260507093004 15 178 1.6 14.5 0.00 0.00 0.00 1 1016.9
20260507092904 15 178 1.6 14.5 0.00 0.00 0.00 1 1016.9
20260507092804 15 178 1.6 14.5 0.00 0.00 0.00 1 1016.9
20260507092704 15 178 0.0 14.5 0.00 0.00 0.00 1 1016.9
20260507092604 15 183 0.0 14.5 0.00 0.00 0.00 1 1016.9
20260507092504 15 182 0.0 14.5 0.00 0.00 0.00 1 1017.0
20260507092404 15 178 0.0 6.4 0.00 0.00 0.00 1 1017.0
20260507092307 15 177 0.0 6.4 0.00 0.00 0.00 1 1017.1
20260507092204 15 178 0.0 6.4 0.00 0.00 0.00 1 1017.1
20260507092104 15 178 0.0 6.4 0.00 0.00 0.00 1 1017.1
20260507092004 15 174 0.0 6.4 0.00 0.00 0.00 1 1017.1
20260507091904 15 174 0.0 6.4 0.00 0.00 0.00 1 1017.0
20260507091825 15 176 0.0 4.8 0.00 0.00 0.00 1 1017.0
20260507091704 15 175 0.0 4.8 0.00 0.00 0.00 1 1016.9
20260507091604 15 182 0.0 3.2 0.00 0.00 0.00 1 1016.9
20260507091504 15 174 0.0 3.2 0.00 0.00 0.00 1 1016.9
20260507091404 15 168 0.0 1.6 0.00 0.00 0.00 1 1016.8
20260507091304 15 168 0.0 1.6 0.00 0.00 0.00 1 1016.7
20260507091204 15 173 0.0 1.6 0.00 0.00 0.00 1 1016.7
20260507091104 15 173 0.0 1.6 0.00 0.00 0.00 1 1016.5
20260507091004 15 173 0.0 1.6 0.00 0.00 0.00 1 1016.5
20260507090925 15 173 0.0 1.6 0.00 0.00 0.00 1 1016.5
20260507090804 15 173 0.0 3.2 0.00 0.00 0.00 1 1016.5
20260507090704 15 173 0.0 3.2 0.00 0.00 0.00 1 1016.4
20260507090604 15 162 0.0 3.2 0.00 0.00 0.00 1 1016.4
20260507090525 15 183 0.0 3.2 0.00 0.00 0.00 1 1016.4
20260507090404 15 183 0.0 3.2 0.00 0.00 0.00 1 1016.4
20260507090304 15 183 0.0 3.2 0.00 0.00 0.00 1 1016.3
20260507090225 15 0 0.0 3.2 0.00 0.00 0.00 1 1016.3
20260507090104 15 226 0.0 3.2 0.00 0.00 0.00 1 1016.3
20260507090005 15 226 0.0 3.2 0.00 0.00 0.00 1 1016.4
20260507085904 15 226 0.0 3.2 0.00 0.00 0.00 1 1016.5
20260507085805 15 226 0.0 1.6 0.00 0.00 0.00 1 1016.5
20260507085704 15 226 0.0 1.6 0.00 0.00 0.00 1 1016.5
20260507085604 15 184 0.0 1.6 0.00 0.00 0.00 1 1016.5
20260507085504 15 190 1.6 12.9 0.00 0.00 0.00 1 1016.3
20260507085404 15 193 1.6 12.9 0.00 0.00 0.00 1 1016.2
20260507085325 15 184 1.6 12.9 0.00 0.00 0.00 1 1016.0
20260507085204 15 181 3.2 12.9 0.00 0.00 0.00 1 1016.0
20260507085104 15 179 3.2 16.1 0.00 0.00 0.00 1 1016.0
20260507085004 15 179 4.8 16.1 0.00 0.00 0.00 1 1016.1
20260507084925 15 178 4.8 16.1 0.00 0.00 0.00 1 1016.2
20260507084805 15 179 4.8 16.1 0.00 0.00 0.00 1 1016.2
20260507084704 15 179 4.8 16.1 0.00 0.00 0.00 1 1016.1
20260507084604 15 179 4.8 16.1 0.00 0.00 0.00 1 1016.2
20260507084504 15 178 4.8 16.1 0.00 0.00 0.00 1 1016.1
20260507084404 15 175 3.2 16.1 0.00 0.00 0.00 1 1016.1
20260507084304 15 178 3.2 16.1 0.00 0.00 0.00 1 1016.2
20260507084204 15 178 3.2 16.1 0.00 0.00 0.00 1 1016.2
20260507084104 15 179 1.6 14.5 0.00 0.00 0.00 1 1016.2
20260507084004 15 180 1.6 9.7 0.00 0.00 0.00 1 1016.3
20260507083904 15 187 0.0 9.7 0.00 0.00 0.00 1 1016.4
20260507083825 15 178 0.0 9.7 0.00 0.00 0.00 1 1016.3
20260507083704 15 225 0.0 1.6 0.00 0.00 0.00 1 1016.3
20260507083604 15 172 0.0 11.3 0.00 0.00 0.00 1 1016.2
20260507083504 15 189 1.6 17.7 0.00 0.00 0.00 1 1016.2
20260507083404 15 197 1.6 17.7 0.00 0.00 0.00 1 1016.2
20260507083304 15 197 1.6 17.7 0.00 0.00 0.00 1 1016.2
20260507083204 15 197 3.2 17.7 0.00 0.00 0.00 1 1016.2
20260507083104 15 197 3.2 17.7 0.00 0.00 0.00 1 1016.2
20260507083004 15 197 3.2 17.7 0.00 0.00 0.00 1 1016.2
20260507082904 15 197 3.2 17.7 0.00 0.00 0.00 1 1016.1
20260507082804 15 197 3.2 17.7 0.00 0.00 0.00 1 1016.0
20260507082704 15 196 3.2 17.7 0.00 0.00 0.00 1 1015.9
20260507082625 15 196 1.6 17.7 0.00 0.00 0.00 1 1015.8
20260507082504 15 207 1.6 17.7 0.00 0.00 0.00 1 1015.7
20260507082404 15 194 0.0 9.7 0.00 0.00 0.00 1 1015.7
20260507082306 15 197 0.0 9.7 0.00 0.00 0.00 1 1015.6
20260507082204 15 194 0.0 9.7 0.00 0.00 0.00 1 1015.7
20260507082104 15 194 0.0 6.4 0.00 0.00 0.00 1 1015.8
20260507082004 15 186 0.0 6.4 0.00 0.00 0.00 1 1015.8
20260507081904 15 195 0.0 6.4 0.00 0.00 0.00 1 1015.9
20260507081804 15 190 0.0 6.4 0.00 0.00 0.00 1 1015.9
20260507081705 15 191 0.0 6.4 0.00 0.00 0.00 1 1015.9
20260507081625 15 191 0.0 6.4 0.00 0.00 0.00 1 1015.7
20260507081504 15 191 0.0 6.4 0.00 0.00 0.00 1 1015.7
20260507081404 15 191 0.0 6.4 0.00 0.00 0.00 1 1015.7
20260507081304 15 189 0.0 6.4 0.00 0.00 0.00 1 1015.7
20260507081225 15 190 0.0 6.4 0.00 0.00 0.00 1 1015.6
20260507081104 15 188 0.0 6.4 0.00 0.00 0.00 1 1015.6
20260507081004 15 191 0.0 6.4 0.00 0.00 0.00 1 1015.6
20260507080904 15 175 0.0 4.8 0.00 0.00 0.00 1 1015.7
20260507080804 15 185 0.0 4.8 0.00 0.00 0.00 1 1015.7
20260507080704 15 193 0.0 4.8 0.00 0.00 0.00 1 1015.7
20260507080625 16 193 0.0 4.8 0.00 0.00 0.00 1 1015.9
20260507080504 16 193 0.0 4.8 0.00 0.00 0.00 1 1016.0
20260507080404 16 202 0.0 4.8 0.00 0.00 0.00 1 1016.1
20260507080304 16 202 0.0 4.8 0.00 0.00 0.00 1 1016.2
20260507080204 16 197 0.0 4.8 0.00 0.00 0.00 1 1016.1
20260507080125 16 197 0.0 4.8 0.00 0.00 0.00 1 1016.0
20260507080004 16 200 0.0 4.8 0.00 0.00 0.00 1 1015.8
20260507075904 16 200 0.0 4.8 0.00 0.00 0.00 1 1015.7
20260507075804 16 204 0.0 4.8 0.00 0.00 0.00 1 1015.5
20260507075704 16 202 0.0 4.8 0.00 0.00 0.00 1 1015.4
20260507075604 16 198 0.0 4.8 0.00 0.00 0.00 1 1015.3
20260507075504 16 198 0.0 4.8 0.00 0.00 0.00 1 1015.3
20260507075404 16 195 0.0 4.8 0.00 0.00 0.00 1 1015.4
20260507075306 16 198 0.0 4.8 0.00 0.00 0.00 1 1015.4
20260507075204 16 200 0.0 4.8 0.00 0.00 0.00 1 1015.4
20260507075125 16 210 0.0 9.7 0.00 0.00 0.00 1 1015.4
20260507075025 16 210 0.0 9.7 0.00 0.00 0.00 1 1015.4
20260507074925 16 210 0.0 9.7 0.00 0.00 0.00 1 1015.4
20260507074804 16 208 0.0 9.7 0.00 0.00 0.00 1 1015.4
20260507074704 16 210 0.0 9.7 0.00 0.00 0.00 1 1015.4
20260507074604 16 218 0.0 9.7 0.00 0.00 0.00 1 1015.4
20260507074504 16 218 0.0 9.7 0.00 0.00 0.00 1 1015.4
20260507074404 16 218 0.0 9.7 0.00 0.00 0.00 1 1015.4
20260507074325 16 218 0.0 9.7 0.00 0.00 0.00 1 1015.4
20260507074225 16 223 0.0 9.7 0.00 0.00 0.00 1 1015.5
20260507074104 16 218 0.0 8.0 0.00 0.00 0.00 1 1015.5
20260507074004 16 220 0.0 8.0 0.00 0.00 0.00 1 1015.5
20260507073904 16 217 0.0 8.0 0.00 0.00 0.00 1 1015.7
20260507073804 16 216 0.0 8.0 0.00 0.00 0.00 1 1015.8
20260507073726 16 213 0.0 8.0 0.00 0.00 0.00 1 1015.9
20260507073604 16 214 0.0 8.0 0.00 0.00 0.00 1 1015.9
20260507073525 16 214 0.0 8.0 0.00 0.00 0.00 1 1015.8
20260507073404 16 205 0.0 9.7 0.00 0.00 0.00 1 1015.7
20260507073304 16 205 0.0 9.7 0.00 0.00 0.00 1 1015.5
20260507073225 16 205 0.0 9.7 0.00 0.00 0.00 1 1015.5
20260507073104 16 204 0.0 9.7 0.00 0.00 0.00 1 1015.5
20260507073004 16 202 0.0 9.7 0.00 0.00 0.00 1 1015.5
20260507072904 16 201 0.0 9.7 0.00 0.00 0.00 1 1015.5
20260507072825 16 201 0.0 9.7 0.00 0.00 0.00 1 1015.5
20260507072704 16 200 0.0 9.7 0.00 0.00 0.00 1 1015.6
20260507072604 16 192 0.0 9.7 0.00 0.00 0.00 1 1015.7
20260507072504 16 231 0.0 6.4 0.00 0.00 0.00 1 1015.7
20260507072404 16 229 0.0 6.4 0.00 0.00 0.00 1 1015.8
20260507072325 16 229 0.0 6.4 0.00 0.00 0.00 1 1015.8
20260507072204 16 229 0.0 6.4 0.00 0.00 0.00 1 1015.8
20260507072125 16 229 0.0 6.4 0.00 0.00 0.00 1 1015.7
20260507072004 16 229 0.0 6.4 0.00 0.00 0.00 1 1015.7
20260507071904 16 230 0.0 6.4 0.00 0.00 0.00 1 1015.7
20260507071804 16 227 0.0 6.4 0.00 0.00 0.00 1 1015.7
20260507071704 16 224 0.0 6.4 0.00 0.00 0.00 1 1015.6
20260507071604 16 224 0.0 6.4 0.00 0.00 0.00 1 1015.7
20260507071504 16 208 0.0 1.6 0.00 0.00 0.00 1 1015.7
20260507071404 16 207 0.0 1.6 0.00 0.00 0.00 1 1015.9
20260507071304 16 208 0.0 1.6 0.00 0.00 0.00 1 1016.0
20260507071225 16 208 0.0 1.6 0.00 0.00 0.00 1 1016.1
20260507071104 16 208 0.0 1.6 0.00 0.00 0.00 1 1016.1
20260507071004 16 209 0.0 3.2 0.00 0.00 0.00 1 1016.2
20260507070904 16 209 0.0 3.2 0.00 0.00 0.00 1 1016.1
20260507070825 16 209 0.0 3.2 0.00 0.00 0.00 1 1016.1
20260507070725 16 208 0.0 3.2 0.00 0.00 0.00 1 1016.0
20260507070604 16 205 0.0 3.2 0.00 0.00 0.00 1 1016.0
20260507070504 16 205 0.0 3.2 0.00 0.00 0.00 1 1015.9
20260507070404 16 211 0.0 3.2 0.00 0.00 0.00 1 1015.8
20260507070325 16 213 0.0 3.2 0.00 0.00 0.00 1 1015.8
20260507070225 16 213 0.0 3.2 0.00 0.00 0.00 1 1015.8
20260507070125 16 223 0.0 3.2 0.00 0.00 0.00 1 1015.8
20260507070008 16 216 0.0 6.4 0.00 0.00 0.00 1 1015.8
20260507065904 16 216 0.0 6.4 0.00 0.00 0.00 1 1015.8
20260507065804 16 216 0.0 6.4 0.00 0.00 0.00 1 1015.8
20260507065704 16 216 0.0 6.4 0.00 0.00 0.00 1 1015.8
20260507065604 16 212 0.0 6.4 0.00 0.00 0.00 1 1015.7
20260507065525 16 209 0.0 6.4 0.00 0.00 0.00 1 1015.6
20260507065425 16 209 0.0 6.4 0.00 0.00 0.00 1 1015.6
20260507065306 16 209 0.0 6.4 0.00 0.00 0.00 1 1015.4
20260507065204 16 212 0.0 6.4 0.00 0.00 0.00 1 1015.4
20260507065104 16 207 0.0 11.3 0.00 0.00 0.00 1 1015.3
20260507065004 16 206 0.0 11.3 0.00 0.00 0.00 1 1015.3
20260507064904 16 206 0.0 11.3 0.00 0.00 0.00 1 1015.3
20260507064804 16 207 0.0 11.3 0.00 0.00 0.00 1 1015.3
20260507064704 16 210 0.0 11.3 0.00 0.00 0.00 1 1015.3
20260507064604 16 210 0.0 11.3 0.00 0.00 0.00 1 1015.3
20260507064525 16 211 0.0 11.3 0.00 0.00 0.00 1 1015.3
20260507064425 16 211 0.0 11.3 0.00 0.00 0.00 1 1015.2
20260507064304 16 211 0.0 11.3 0.00 0.00 0.00 1 1015.0
20260507064204 16 211 0.0 11.3 0.00 0.00 0.00 1 1014.9
20260507064104 16 213 0.0 9.7 0.00 0.00 0.00 1 1014.8
20260507064004 16 215 0.0 9.7 0.00 0.00 0.00 1 1014.8
20260507063904 16 214 0.0 9.7 0.00 0.00 0.00 1 1014.8
20260507063804 16 215 0.0 9.7 0.00 0.00 0.00 1 1014.9
20260507063725 16 210 0.0 4.8 0.00 0.00 0.00 1 1015.0
20260507063625 16 209 0.0 4.8 0.00 0.00 0.00 1 1015.1
20260507063525 16 209 0.0 4.8 0.00 0.00 0.00 1 1015.2
20260507063404 16 209 0.0 4.8 0.00 0.00 0.00 1 1015.2
20260507063304 16 209 0.0 4.8 0.00 0.00 0.00 1 1015.3
20260507063204 16 205 0.0 4.8 0.00 0.00 0.00 1 1015.3
20260507063104 16 199 0.0 4.8 0.00 0.00 0.00 1 1015.3
20260507063004 16 209 0.0 9.7 0.00 0.00 0.00 1 1015.4
20260507062925 16 213 0.0 9.7 0.00 0.00 0.00 1 1015.4
20260507062804 16 213 0.0 9.7 0.00 0.00 0.00 1 1015.5
20260507062704 16 213 0.0 9.7 0.00 0.00 0.00 1 1015.5
20260507062604 16 213 0.0 9.7 0.00 0.00 0.00 1 1015.6
20260507062504 16 213 0.0 9.7 0.00 0.00 0.00 1 1015.7
20260507062425 16 212 0.0 9.7 0.00 0.00 0.00 1 1015.7
20260507062306 16 212 0.0 9.7 0.00 0.00 0.00 1 1015.7
20260507062225 16 211 0.0 9.7 0.00 0.00 0.00 1 1015.7
20260507062104 16 212 0.0 9.7 0.00 0.00 0.00 1 1015.7
20260507062004 16 209 0.0 8.0 0.00 0.00 0.00 1 1015.5
20260507061904 16 208 0.0 8.0 0.00 0.00 0.00 1 1015.5
20260507061804 16 207 0.0 8.0 0.00 0.00 0.00 1 1015.4
20260507061704 16 205 0.0 8.0 0.00 0.00 0.00 1 1015.3
20260507061604 16 204 0.0 8.0 0.00 0.00 0.00 1 1015.3
20260507061525 16 203 0.0 8.0 0.00 0.00 0.00 1 1015.3
20260507061404 16 200 0.0 4.8 0.00 0.00 0.00 1 1015.3
20260507061304 16 200 0.0 4.8 0.00 0.00 0.00 1 1015.4
20260507061204 16 202 0.0 4.8 0.00 0.00 0.00 1 1015.4
20260507061104 16 202 0.0 4.8 0.00 0.00 0.00 1 1015.4
20260507061004 16 202 0.0 4.8 0.00 0.00 0.00 1 1015.3
20260507060904 16 200 0.0 4.8 0.00 0.00 0.00 1 1015.3
20260507060804 16 201 0.0 4.8 0.00 0.00 0.00 1 1015.3
20260507060704 16 201 0.0 4.8 0.00 0.00 0.00 1 1015.3
20260507060604 16 201 0.0 4.8 0.00 0.00 0.00 1 1015.3
20260507060504 16 202 0.0 4.8 0.00 0.00 0.00 1 1015.3
20260507060404 16 200 0.0 4.8 0.00 0.00 0.00 1 1015.3
20260507060304 16 200 0.0 4.8 0.00 0.00 0.00 1 1015.4
20260507060225 16 201 0.0 4.8 0.00 0.00 0.00 1 1015.5
20260507060104 16 185 0.0 4.8 0.00 0.00 0.00 1 1015.5
20260507060004 16 185 0.0 3.2 0.00 0.00 0.00 1 1015.5
20260507055904 16 211 0.0 4.8 0.00 0.00 0.00 1 1015.5
20260507055804 16 212 0.0 4.8 0.00 0.00 0.00 1 1015.5
20260507055704 16 209 0.0 4.8 0.00 0.00 0.00 1 1015.6
20260507055604 16 204 0.0 4.8 0.00 0.00 0.00 1 1015.6
20260507055504 16 202 0.0 4.8 0.00 0.00 0.00 1 1015.6
20260507055404 16 203 0.0 6.4 0.00 0.00 0.00 1 1015.4
20260507055306 16 207 0.0 8.0 0.00 0.00 0.00 1 1015.4
20260507055225 16 207 0.0 8.0 0.00 0.00 0.00 1 1015.3
20260507055125 16 207 0.0 8.0 0.00 0.00 0.00 1 1015.3
20260507055004 16 207 0.0 8.0 0.00 0.00 0.00 1 1015.2
20260507054904 16 206 0.0 8.0 0.00 0.00 0.00 1 1015.2
20260507054804 16 205 0.0 8.0 0.00 0.00 0.00 1 1015.3
20260507054704 16 205 0.0 8.0 0.00 0.00 0.00 1 1015.3
20260507054604 16 211 0.0 8.0 0.00 0.00 0.00 1 1015.3
20260507054504 16 212 0.0 8.0 0.00 0.00 0.00 1 1015.2
20260507054425 16 211 0.0 8.0 0.00 0.00 0.00 1 1015.2
20260507054304 16 205 0.0 12.9 0.00 0.00 0.00 1 1015.2
20260507054204 16 205 0.0 12.9 0.00 0.00 0.00 2 1015.3
20260507054104 16 205 0.0 12.9 0.00 0.00 0.00 2 1015.4
20260507054004 16 205 0.0 12.9 0.00 0.00 0.00 3 1015.4
20260507053904 16 204 0.0 12.9 0.00 0.00 0.00 3 1015.4
20260507053825 16 204 0.0 12.9 0.00 0.00 0.00 3 1015.4
20260507053704 16 206 0.0 12.9 0.00 0.00 0.00 3 1015.3
20260507053605 16 204 0.0 12.9 0.00 0.00 0.00 3 1015.3
20260507053504 16 204 0.0 12.9 0.00 0.00 0.00 4 1015.2
20260507053404 16 202 0.0 12.9 0.00 0.00 0.00 4 1015.3
20260507053325 16 205 0.0 8.0 0.00 0.00 0.00 4 1015.2
20260507053204 16 205 0.0 8.0 0.00 0.00 0.00 4 1015.2
20260507053104 16 210 1.6 14.5 0.00 0.00 0.00 4 1015.2
20260507053004 16 206 1.6 14.5 0.00 0.00 0.00 5 1015.1
20260507052904 16 202 1.6 14.5 0.00 0.00 0.00 5 1015.1
20260507052804 16 203 1.6 14.5 0.00 0.00 0.00 5 1015.1
20260507052704 16 202 1.6 14.5 0.00 0.00 0.00 6 1015.1
20260507052604 16 201 1.6 14.5 0.00 0.00 0.00 6 1015.2
20260507052504 16 201 1.6 14.5 0.00 0.00 0.00 7 1015.2
20260507052404 16 197 1.6 14.5 0.00 0.00 0.00 7 1015.3
20260507052306 16 201 1.6 14.5 0.00 0.00 0.00 7 1015.3
20260507052204 16 200 1.6 14.5 0.00 0.00 0.00 8 1015.3
20260507052104 16 196 1.6 12.9 0.00 0.00 0.00 8 1015.3
20260507052004 16 197 1.6 12.9 0.00 0.00 0.00 8 1015.3
20260507051925 16 198 1.6 12.9 0.00 0.00 0.00 8 1015.2
20260507051825 16 198 1.6 12.9 0.00 0.00 0.00 8 1015.2
20260507051704 16 201 1.6 17.7 0.00 0.00 0.00 9 1015.2
20260507051625 16 197 1.6 17.7 0.00 0.00 0.00 9 1015.2
20260507051504 16 196 1.6 17.7 0.00 0.00 0.00 9 1015.1
20260507051404 16 199 1.6 17.7 0.00 0.00 0.00 9 1015.1
20260507051325 16 198 1.6 17.7 0.00 0.00 0.00 9 1015.1
20260507051204 16 194 1.6 17.7 0.00 0.00 0.00 9 1015.1
20260507051104 16 193 1.6 17.7 0.00 0.00 0.00 10 1015.1
20260507051025 16 194 1.6 17.7 0.00 0.00 0.00 10 1015.2
20260507050904 16 195 1.6 17.7 0.00 0.00 0.00 10 1015.2
20260507050804 16 195 1.6 17.7 0.00 0.00 0.00 10 1015.2
20260507050725 16 189 3.2 17.7 0.00 0.00 0.00 10 1015.2
20260507050604 16 189 3.2 20.9 0.00 0.00 0.00 10 1015.1
20260507050504 16 190 3.2 20.9 0.00 0.00 0.00 10 1015.2
20260507050404 17 190 3.2 20.9 0.00 0.00 0.00 10 1015.1
20260507050304 17 192 3.2 20.9 0.00 0.00 0.00 10 1015.2
20260507050204 17 192 3.2 20.9 0.00 0.00 0.00 10 1015.2
20260507050104 17 193 3.2 20.9 0.00 0.00 0.00 10 1015.2
20260507050004 17 193 1.6 20.9 0.00 0.00 0.00 10 1015.3
20260507045904 17 192 1.6 20.9 0.00 0.00 0.00 10 1015.2
20260507045804 17 190 1.6 20.9 0.00 0.00 0.00 10 1015.2
20260507045725 17 191 1.6 20.9 0.00 0.00 0.00 10 1015.2
20260507045604 17 193 1.6 12.9 0.00 0.00 0.00 9 1015.2
20260507045504 17 192 1.6 12.9 0.00 0.00 0.00 9 1015.3
20260507045404 17 189 1.6 12.9 0.00 0.00 0.00 9 1015.3
20260507045306 17 188 3.2 17.7 0.00 0.00 0.00 7 1015.4
20260507045204 17 190 4.8 17.7 0.00 0.00 0.00 7 1015.5
20260507045104 17 190 4.8 20.9 0.00 0.00 0.00 6 1015.5
20260507045004 17 188 6.4 20.9 0.00 0.00 0.00 6 1015.5
20260507044904 17 187 6.4 20.9 0.00 0.00 0.00 5 1015.4
20260507044804 17 187 6.4 20.9 0.00 0.00 0.00 5 1015.5
20260507044704 17 188 6.4 20.9 0.00 0.00 0.00 4 1015.5
20260507044604 17 188 6.4 20.9 0.00 0.00 0.00 4 1015.5
20260507044504 17 188 8.0 20.9 0.00 0.00 0.00 4 1015.5
20260507044404 17 186 8.0 20.9 0.00 0.00 0.00 4 1015.5
20260507044304 17 184 8.0 20.9 0.00 0.00 0.00 4 1015.6
20260507044204 17 180 6.4 20.9 0.00 0.00 0.00 4 1015.7
20260507044104 17 177 6.4 19.3 0.00 0.00 0.00 3 1015.7
20260507044004 17 176 6.4 19.3 0.00 0.00 0.00 2 1015.7
20260507043904 17 178 6.4 19.3 0.00 0.00 0.00 1 1015.7
20260507043825 17 180 8.0 19.3 0.00 0.00 0.00 1 1015.6
20260507043704 17 180 8.0 19.3 0.00 0.00 0.00 1 1015.5
20260507043604 17 181 9.7 19.3 0.00 0.00 0.00 1 1015.5
20260507043504 17 181 9.7 19.3 0.00 0.00 0.00 1 1015.5
20260507043404 17 182 9.7 19.3 0.00 0.00 0.00 1 1015.5
20260507043304 17 182 8.0 19.3 0.00 0.00 0.00 1 1015.4
20260507043204 17 185 8.0 19.3 0.00 0.00 0.00 1 1015.4
20260507043125 17 186 6.4 19.3 0.00 0.00 0.00 1 1015.3
20260507043004 17 189 8.0 19.3 0.00 0.00 0.00 1 1015.3
20260507042925 17 191 6.4 19.3 0.00 0.00 0.00 1 1015.2
20260507042804 17 192 6.4 19.3 0.00 0.00 0.00 1 1015.2
20260507042704 17 192 8.0 20.9 0.00 0.00 0.00 1 1015.2
20260507042604 17 190 6.4 20.9 0.00 0.00 0.00 1 1015.1
20260507042504 17 191 4.8 20.9 0.00 0.00 0.00 1 1015.2
20260507042404 17 192 4.8 20.9 0.00 0.00 0.00 1 1015.1
20260507042306 17 188 6.4 20.9 0.00 0.00 0.00 1 1015.0
20260507042225 17 188 8.0 20.9 0.00 0.00 0.00 1 1015.0
20260507042104 17 187 8.0 20.9 0.00 0.00 0.00 1 1015.0
20260507042025 17 185 8.0 20.9 0.00 0.00 0.00 1 1015.0
20260507041904 17 182 8.0 20.9 0.00 0.00 0.00 1 1015.1
20260507041804 17 181 6.4 20.9 0.00 0.00 0.00 1 1015.2
20260507041725 17 180 4.8 19.3 0.00 0.00 0.00 1 1015.2
20260507041604 17 179 4.8 19.3 0.00 0.00 0.00 1 1015.3
20260507041504 17 179 4.8 19.3 0.00 0.00 0.00 1 1015.3
20260507041404 17 179 4.8 19.3 0.00 0.00 0.00 1 1015.2
20260507041304 17 182 3.2 19.3 0.00 0.00 0.00 1 1015.3
20260507041204 17 181 3.2 19.3 0.00 0.00 0.00 1 1015.2
20260507041104 17 182 1.6 19.3 0.00 0.00 0.00 1 1015.2
20260507041004 17 182 1.6 11.3 0.00 0.00 0.00 1 1015.1
20260507040904 17 186 0.0 11.3 0.00 0.00 0.00 1 1015.1
20260507040825 17 185 0.0 11.3 0.00 0.00 0.00 1 1015.2
20260507040705 17 180 0.0 9.7 0.00 0.00 0.00 1 1015.3
20260507040604 17 183 0.0 9.7 0.00 0.00 0.00 1 1015.3
20260507040504 17 180 0.0 6.4 0.00 0.00 0.00 1 1015.4
20260507040425 17 180 0.0 6.4 0.00 0.00 0.00 1 1015.5
20260507040304 17 178 0.0 6.4 0.00 0.00 0.00 1 1015.4
20260507040204 17 178 0.0 6.4 0.00 0.00 0.00 1 1015.4
20260507040125 17 179 0.0 6.4 0.00 0.00 0.00 1 1015.4
20260507040025 17 179 0.0 6.4 0.00 0.00 0.00 1 1015.4
20260507035904 17 179 0.0 4.8 0.00 0.00 0.00 1 1015.4
20260507035804 17 175 0.0 4.8 0.00 0.00 0.00 1 1015.3
20260507035704 17 175 0.0 4.8 0.00 0.00 0.00 1 1015.4
20260507035625 17 175 0.0 4.8 0.00 0.00 0.00 1 1015.5
20260507035504 17 184 0.0 1.6 0.00 0.00 0.00 1 1015.5
20260507035404 17 195 0.0 3.2 0.00 0.00 0.00 1 1015.5
20260507035306 17 195 0.0 3.2 0.00 0.00 0.00 1 1015.5
20260507035225 17 195 0.0 3.2 0.00 0.00 0.00 1 1015.4
20260507035104 17 200 0.0 3.2 0.00 0.00 0.00 1 1015.4
20260507035004 17 193 0.0 4.8 0.00 0.00 0.00 1 1015.4
20260507034904 17 184 0.0 4.8 0.00 0.00 0.00 1 1015.4
20260507034825 17 187 1.6 16.1 0.00 0.00 0.00 1 1015.3
20260507034725 17 180 1.6 19.3 0.00 0.00 0.00 1 1015.3
20260507034604 17 182 3.2 19.3 0.00 0.00 0.00 1 1015.2
20260507034504 17 178 3.2 19.3 0.00 0.00 0.00 1 1015.2
20260507034404 17 179 4.8 19.3 0.00 0.00 0.00 1 1015.3
20260507034304 17 176 4.8 19.3 0.00 0.00 0.00 1 1015.3
20260507034204 17 173 4.8 19.3 0.00 0.00 0.00 1 1015.3
20260507034125 17 173 6.4 19.3 0.00 0.00 0.00 1 1015.2
20260507034004 17 174 8.0 19.3 0.00 0.00 0.00 1 1015.1
20260507033904 17 175 8.0 19.3 0.00 0.00 0.00 1 1015.0
20260507033804 17 176 8.0 19.3 0.00 0.00 0.00 1 1014.9
20260507033704 17 175 9.7 20.9 0.00 0.00 0.00 1 1015.0
20260507033604 17 176 9.7 20.9 0.00 0.00 0.00 1 1015.1
20260507033504 17 177 9.7 20.9 0.00 0.00 0.00 1 1015.1
20260507033404 17 177 11.3 20.9 0.00 0.00 0.00 2 1015.2
20260507033304 17 178 11.3 20.9 0.00 0.00 0.00 2 1015.1
20260507033204 17 179 11.3 20.9 0.00 0.00 0.00 2 1015.1
20260507033104 17 179 11.3 20.9 0.00 0.00 0.00 3 1015.0
20260507033004 17 180 11.3 20.9 0.00 0.00 0.00 3 1015.0
20260507032904 17 181 11.3 20.9 0.00 0.00 0.00 3 1015.1
20260507032804 17 182 11.3 20.9 0.00 0.00 0.00 4 1015.1
20260507032704 17 180 9.7 19.3 0.00 0.00 0.00 3 1015.1
20260507032604 17 179 9.7 19.3 0.00 0.00 0.00 4 1015.2
20260507032525 17 178 9.7 20.9 0.00 0.00 0.00 3 1015.2
20260507032404 17 178 9.7 20.9 0.00 0.00 0.00 4 1015.3
20260507032306 17 177 9.7 20.9 0.00 0.00 0.00 4 1015.3
20260507032204 17 177 8.0 20.9 0.00 0.00 0.00 4 1015.3
20260507032104 17 177 8.0 20.9 0.00 0.00 0.00 4 1015.2
20260507032025 17 176 8.0 20.9 0.00 0.00 0.00 4 1015.3
20260507031904 17 170 6.4 20.9 0.00 0.00 0.00 4 1015.3
20260507031804 17 168 4.8 20.9 0.00 0.00 0.00 4 1015.4
20260507031704 17 170 4.8 20.9 0.00 0.00 0.00 5 1015.4
20260507031604 17 169 4.8 20.9 0.00 0.00 0.00 5 1015.3
20260507031525 17 169 4.8 19.3 0.00 0.00 0.00 4 1015.2
20260507031404 17 169 4.8 17.7 0.00 0.00 0.00 4 1015.1
20260507031304 17 171 4.8 17.7 0.00 0.00 0.00 4 1015.1
20260507031204 17 172 4.8 17.7 0.00 0.00 0.00 5 1015.0
20260507031104 17 174 6.4 17.7 0.00 0.00 0.00 4 1014.9
20260507031004 17 176 6.4 17.7 0.00 0.00 0.00 4 1014.8
20260507030904 17 177 6.4 16.1 0.00 0.00 0.00 4 1014.9
20260507030804 17 177 6.4 16.1 0.00 0.00 0.00 4 1014.9
20260507030704 17 176 6.4 16.1 0.00 0.00 0.00 4 1014.9
20260507030604 17 179 6.4 16.1 0.00 0.00 0.00 3 1015.0
20260507030504 17 179 6.4 16.1 0.00 0.00 0.00 3 1015.0
20260507030404 17 180 6.4 17.7 0.00 0.00 0.00 4 1015.0
20260507030304 17 179 6.4 17.7 0.00 0.00 0.00 3 1015.0
20260507030204 17 179 6.4 17.7 0.00 0.00 0.00 4 1015.0
20260507030125 17 178 4.8 17.7 0.00 0.00 0.00 4 1015.0
20260507030004 17 178 4.8 17.7 0.00 0.00 0.00 3 1015.0
20260507025904 17 179 4.8 17.7 0.00 0.00 0.00 3 1015.0
20260507025804 17 179 4.8 17.7 0.00 0.00 0.00 2 1014.8
20260507025704 17 181 3.2 17.7 0.00 0.00 0.00 3 1014.7
20260507025604 17 177 3.2 17.7 0.00 0.00 0.00 2 1014.6
20260507025504 17 174 1.6 17.7 0.00 0.00 0.00 1 1014.6
20260507025404 17 166 1.6 16.1 0.00 0.00 0.00 1 1014.7
20260507025325 17 164 1.6 16.1 0.00 0.00 0.00 1 1014.8
20260507025204 17 166 3.2 9.7 0.00 0.00 0.00 1 1014.9
20260507025104 17 162 3.2 9.7 0.00 0.00 0.00 1 1015.0
20260507025004 17 159 3.2 12.9 0.00 0.00 0.00 1 1015.0
20260507024904 17 156 3.2 16.1 0.00 0.00 0.00 1 1015.0
20260507024804 17 161 4.8 16.1 0.00 0.00 0.00 1 1015.1
20260507024725 17 159 4.8 16.1 0.00 0.00 0.00 1 1015.0
20260507024604 17 162 6.4 16.1 0.00 0.00 0.00 1 1015.0
20260507024504 17 162 6.4 16.1 0.00 0.00 0.00 1 1015.0
20260507024404 17 164 6.4 16.1 0.00 0.00 0.00 1 1015.0
20260507024304 17 164 6.4 16.1 0.00 0.00 0.00 1 1015.0
20260507024204 17 164 6.4 16.1 0.00 0.00 0.00 1 1014.9
20260507024125 17 166 6.4 16.1 0.00 0.00 0.00 1 1014.8
20260507024025 17 166 6.4 16.1 0.00 0.00 0.00 1 1014.7
20260507023904 17 165 6.4 19.3 0.00 0.00 0.00 1 1014.6
20260507023825 17 163 8.0 19.3 0.00 0.00 0.00 1 1014.6
20260507023725 17 163 6.4 19.3 0.00 0.00 0.00 1 1014.6
20260507023604 17 161 6.4 19.3 0.00 0.00 0.00 1 1014.7
20260507023504 17 161 6.4 19.3 0.00 0.00 0.00 1 1014.7
20260507023404 17 160 4.8 19.3 0.00 0.00 0.00 2 1014.7
20260507023304 17 159 4.8 19.3 0.00 0.00 0.00 2 1014.6
20260507023204 17 158 4.8 19.3 0.00 0.00 0.00 2 1014.5
20260507023104 17 157 3.2 19.3 0.00 0.00 0.00 2 1014.4
20260507023004 17 159 3.2 19.3 0.00 0.00 0.00 3 1014.5
20260507022904 17 163 1.6 19.3 0.00 0.00 0.00 3 1014.4
20260507022804 17 170 1.6 16.1 0.00 0.00 0.00 2 1014.4
20260507022725 17 174 1.6 12.9 0.00 0.00 0.00 2 1014.5
20260507022604 17 175 3.2 12.9 0.00 0.00 0.00 2 1014.5
20260507022504 17 173 4.8 14.5 0.00 0.00 0.00 2 1014.5
20260507022404 17 172 4.8 19.3 0.00 0.00 0.00 3 1014.4
20260507022306 17 172 4.8 19.3 0.00 0.00 0.00 3 1014.4
20260507022204 17 172 4.8 19.3 0.00 0.00 0.00 3 1014.4
20260507022103 17 172 4.8 19.3 0.00 0.00 0.00 3 1014.3
20260507022004 17 172 4.8 19.3 0.00 0.00 0.00 3 1014.4
20260507021904 17 172 3.2 19.3 0.00 0.00 0.00 3 1014.3
20260507021804 17 171 3.2 19.3 0.00 0.00 0.00 4 1014.3
20260507021704 17 168 3.2 19.3 0.00 0.00 0.00 4 1014.3
20260507021604 17 164 3.2 19.3 0.00 0.00 0.00 5 1014.4
20260507021504 17 162 1.6 19.3 0.00 0.00 0.00 4 1014.3
20260507021425 17 160 1.6 17.7 0.00 0.00 0.00 4 1014.3
20260507021304 17 158 1.6 17.7 0.00 0.00 0.00 4 1014.3
20260507021204 17 164 1.6 17.7 0.00 0.00 0.00 3 1014.4
20260507021104 17 164 1.6 17.7 0.00 0.00 0.00 4 1014.4
20260507021004 17 164 1.6 17.7 0.00 0.00 0.00 4 1014.4
20260507020904 17 164 1.6 17.7 0.00 0.00 0.00 4 1014.4
20260507020804 17 162 1.6 17.7 0.00 0.00 0.00 4 1014.5
20260507020704 17 167 3.2 17.7 0.00 0.00 0.00 4 1014.4
20260507020625 17 170 3.2 17.7 0.00 0.00 0.00 4 1014.4
20260507020504 17 170 3.2 17.7 0.00 0.00 0.00 4 1014.4
20260507020404 17 170 3.2 17.7 0.00 0.00 0.00 4 1014.3
20260507020304 17 170 3.2 17.7 0.00 0.00 0.00 5 1014.2
20260507020204 17 168 1.6 17.7 0.00 0.00 0.00 4 1014.2
20260507020104 17 167 1.6 17.7 0.00 0.00 0.00 5 1014.1
20260507020004 17 167 1.6 17.7 0.00 0.00 0.00 4 1014.0
20260507015904 17 167 1.6 17.7 0.00 0.00 0.00 5 1014.0
20260507015825 17 170 1.6 17.7 0.00 0.00 0.00 5 1013.9
20260507015704 17 163 0.0 16.1 0.00 0.00 0.00 6 1013.8
20260507015604 17 156 0.0 8.0 0.00 0.00 0.00 6 1013.9
20260507015504 17 157 0.0 8.0 0.00 0.00 0.00 6 1013.8
20260507015404 17 157 0.0 8.0 0.00 0.00 0.00 6 1013.9
20260507015306 17 157 0.0 8.0 0.00 0.00 0.00 7 1013.9
20260507015204 17 156 0.0 6.4 0.00 0.00 0.00 7 1013.8
20260507015104 17 165 0.0 3.2 0.00 0.00 0.00 7 1013.8
20260507015025 17 169 0.0 3.2 0.00 0.00 0.00 7 1013.8
20260507014904 17 155 0.0 3.2 0.00 0.00 0.00 7 1013.7
20260507014804 17 158 0.0 3.2 0.00 0.00 0.00 6 1013.8
20260507014704 17 156 0.0 3.2 0.00 0.00 0.00 7 1013.7
20260507014604 17 157 0.0 8.0 0.00 0.00 0.00 6 1013.8
20260507014525 17 167 0.0 8.0 0.00 0.00 0.00 7 1013.9
20260507014404 17 164 0.0 8.0 0.00 0.00 0.00 7 1014.0
20260507014304 17 164 0.0 8.0 0.00 0.00 0.00 7 1014.0
20260507014204 17 164 0.0 8.0 0.00 0.00 0.00 7 1013.9
20260507014104 17 164 0.0 8.0 0.00 0.00 0.00 7 1013.9
20260507014004 17 164 0.0 8.0 0.00 0.00 0.00 8 1013.8
20260507013904 17 164 0.0 8.0 0.00 0.00 0.00 9 1013.8
20260507013804 17 164 0.0 8.0 0.00 0.00 0.00 9 1013.8
20260507013704 17 164 0.0 8.0 0.00 0.00 0.00 10 1013.8
20260507013604 17 166 0.0 11.3 0.00 0.00 0.00 9 1013.6
20260507013504 17 166 0.0 11.3 0.00 0.00 0.00 9 1013.5
20260507013404 17 153 0.0 11.3 0.00 0.00 0.00 9 1013.4
20260507013304 17 153 0.0 11.3 0.00 0.00 0.00 9 1013.4
20260507013204 17 179 0.0 11.3 0.00 0.00 0.00 8 1013.4
20260507013104 17 179 0.0 11.3 0.00 0.00 0.00 8 1013.4
20260507013004 17 179 0.0 11.3 0.00 0.00 0.00 8 1013.5
20260507012904 17 179 0.0 11.3 0.00 0.00 0.00 8 1013.5
20260507012804 17 175 0.0 11.3 0.00 0.00 0.00 8 1013.4
20260507012704 17 175 0.0 11.3 0.00 0.00 0.00 8 1013.4
20260507012604 17 175 0.0 16.1 0.00 0.00 0.00 9 1013.3
20260507012504 17 173 0.0 16.1 0.00 0.00 0.00 9 1013.3
20260507012404 17 174 0.0 16.1 0.00 0.00 0.00 9 1013.4
20260507012306 17 171 0.0 16.1 0.00 0.00 0.00 9 1013.5
20260507012204 17 156 0.0 16.1 0.00 0.00 0.00 9 1013.4
20260507012104 17 152 0.0 16.1 0.00 0.00 0.00 8 1013.4
20260507012025 17 152 0.0 16.1 0.00 0.00 0.00 8 1013.3
20260507011904 17 153 0.0 16.1 0.00 0.00 0.00 9 1013.3
20260507011804 17 152 0.0 16.1 0.00 0.00 0.00 9 1013.2
20260507011704 17 151 1.6 16.1 0.00 0.00 0.00 9 1013.3
20260507011604 17 151 1.6 19.3 0.00 0.00 0.00 9 1013.2
20260507011504 17 151 1.6 19.3 0.00 0.00 0.00 9 1013.2
20260507011404 17 151 1.6 19.3 0.00 0.00 0.00 9 1013.2
20260507011304 17 151 1.6 19.3 0.00 0.00 0.00 9 1013.2
20260507011204 17 151 1.6 19.3 0.00 0.00 0.00 9 1013.2
20260507011125 17 151 1.6 19.3 0.00 0.00 0.00 9 1013.2
20260507010904 17 151 1.6 19.3 0.00 0.00 0.00 9 1013.2
20260507010804 17 151 1.6 19.3 0.00 0.00 0.00 10 1013.2
20260507010704 17 152 1.6 19.3 0.00 0.00 0.00 10 1013.2
20260507010604 17 151 0.0 14.5 0.00 0.00 0.00 9 1013.2
20260507010525 17 151 1.6 14.5 0.00 0.00 0.00 9 1013.3
20260507010404 17 154 1.6 14.5 0.00 0.00 0.00 8 1013.2
20260507010304 17 154 1.6 14.5 0.00 0.00 0.00 7 1013.2
20260507010204 17 153 1.6 14.5 0.00 0.00 0.00 8 1013.1
20260507010104 17 153 3.2 14.5 0.00 0.00 0.00 9 1013.0
20260507010004 17 159 3.2 14.5 0.00 0.00 0.00 8 1013.0
20260507005904 17 159 4.8 17.7 0.00 0.00 0.00 9 1013.0
20260507005825 17 159 6.4 19.3 0.00 0.00 0.00 8 1013.1
20260507005725 17 160 6.4 19.3 0.00 0.00 0.00 8 1013.0
20260507005625 17 161 6.4 19.3 0.00 0.00 0.00 8 1013.0
20260507005504 17 164 8.0 19.3 0.00 0.00 0.00 8 1012.9
20260507005404 17 164 8.0 19.3 0.00 0.00 0.00 8 1012.9
20260507005305 17 164 8.0 19.3 0.00 0.00 0.00 7 1012.9
20260507005204 17 163 9.7 19.3 0.00 0.00 0.00 7 1012.8
20260507005104 17 163 9.7 19.3 0.00 0.00 0.00 9 1012.8
20260507005004 17 160 9.7 19.3 0.00 0.00 0.00 9 1012.7
20260507004904 17 160 8.0 19.3 0.00 0.00 0.00 9 1012.7
20260507004804 17 160 8.0 17.7 0.00 0.00 0.00 9 1012.7
20260507004704 17 160 8.0 17.7 0.00 0.00 0.00 9 1012.8
20260507004604 17 160 8.0 22.5 0.00 0.00 0.00 9 1012.8
20260507004504 17 162 8.0 22.5 0.00 0.00 0.00 9 1012.8
20260507004404 17 162 8.0 22.5 0.00 0.00 0.00 9 1012.9
20260507004304 17 163 8.0 22.5 0.00 0.00 0.00 9 1012.9
20260507004204 17 164 6.4 22.5 0.00 0.00 0.00 8 1013.0
20260507004104 17 165 6.4 22.5 0.00 0.00 0.00 8 1013.0
20260507004004 17 169 4.8 22.5 0.00 0.00 0.00 8 1013.0
20260507003904 17 170 4.8 22.5 0.00 0.00 0.00 8 1013.0
20260507003804 17 173 4.8 22.5 0.00 0.00 0.00 9 1013.0
20260507003704 17 172 4.8 22.5 0.00 0.00 0.00 10 1012.7
20260507003604 17 174 3.2 20.9 0.00 0.00 0.00 10 1012.7
20260507003504 17 167 3.2 17.7 0.00 0.00 0.00 9 1012.8
20260507003404 17 165 3.2 17.7 0.00 0.00 0.00 8 1012.8
20260507003304 17 162 4.8 20.9 0.00 0.00 0.00 7 1012.8
20260507003204 17 161 6.4 20.9 0.00 0.00 0.00 6 1012.9
20260507003104 17 161 8.0 20.9 0.00 0.00 0.00 7 1012.9
20260507003004 17 160 8.0 20.9 0.00 0.00 0.00 7 1013.0
20260507002925 17 160 9.7 20.9 0.00 0.00 0.00 7 1012.9
20260507002804 17 160 9.7 20.9 0.00 0.00 0.00 7 1012.9
20260507002704 17 160 8.0 20.9 0.00 0.00 0.00 8 1012.9
20260507002604 17 159 8.0 20.9 0.00 0.00 0.00 8 1012.9
20260507002504 17 159 6.4 20.9 0.00 0.00 0.00 8 1012.9
20260507002404 17 159 6.4 20.9 0.00 0.00 0.00 8 1012.9
20260507002306 17 160 4.8 17.7 0.00 0.00 0.00 8 1012.9
20260507002204 17 161 3.2 17.7 0.00 0.00 0.00 8 1012.8
20260507002125 17 161 3.2 16.1 0.00 0.00 0.00 8 1012.6
20260507002004 17 167 1.6 16.1 0.00 0.00 0.00 8 1012.6
20260507001925 17 169 0.0 16.1 0.00 0.00 0.00 7 1012.6
20260507001804 17 154 0.0 4.8 0.00 0.00 0.00 7 1012.6
20260507001704 17 154 0.0 4.8 0.00 0.00 0.00 6 1012.6
20260507001604 17 158 0.0 4.8 0.00 0.00 0.00 7 1012.7
20260507001504 17 171 0.0 4.8 0.00 0.00 0.00 7 1012.8
20260507001404 17 171 0.0 4.8 0.00 0.00 0.00 6 1012.8
20260507001304 17 176 0.0 4.8 0.00 0.00 0.00 6 1012.9
20260507001204 17 173 1.6 14.5 0.00 0.00 0.00 6 1012.9
20260507001104 17 179 1.6 17.7 0.00 0.00 0.00 6 1012.9
20260507001004 17 179 3.2 17.7 0.00 0.00 0.00 7 1012.8
20260507000904 17 175 3.2 17.7 0.00 0.00 0.00 7 1012.7
20260507000804 17 175 3.2 17.7 0.00 0.00 0.00 7 1012.7
20260507000704 17 175 3.2 17.7 0.00 0.00 0.00 7 1012.6
20260507000604 17 173 4.8 17.7 0.00 0.00 0.00 6 1012.7
20260507000504 17 170 4.8 17.7 0.00 0.00 0.00 7 1012.6
20260507000405 17 170 4.8 17.7 0.00 0.00 0.00 7 1012.6
20260507000306 17 169 6.4 17.7 0.00 0.00 0.00 6 1012.6
20260507000226 17 168 6.4 17.7 0.00 0.00 0.00 6 1012.5
20260507000104 17 165 6.4 17.7 0.00 0.00 0.00 5 1012.5
20260507000004 17 162 4.8 17.7 0.00 0.00 0.00 5 1012.4
20260506235904 17 160 6.4 17.7 0.00 0.00 0.00 4 1012.5
20260506235804 17 163 6.4 17.7 0.00 0.00 0.00 4 1012.6
20260506235704 17 163 6.4 17.7 0.00 0.00 0.00 4 1012.8
20260506235625 17 164 8.0 17.7 0.00 0.00 0.00 4 1012.8
20260506235504 17 166 8.0 17.7 0.00 0.00 0.00 4 1012.9
20260506235404 17 168 8.0 17.7 0.00 0.00 0.00 4 1012.9
20260506235325 17 167 9.7 17.7 0.00 0.00 0.00 4 1012.9
20260506235205 17 168 9.7 20.9 0.00 0.00 0.00 5 1012.9
20260506235104 17 169 9.7 20.9 0.00 0.00 0.00 5 1012.8
20260506235004 17 170 9.7 20.9 0.00 0.00 0.00 5 1012.7
20260506234904 17 171 9.7 20.9 0.00 0.00 0.00 6 1012.7
20260506234804 17 173 9.7 20.9 0.00 0.00 0.00 5 1012.6
20260506234704 17 175 11.3 20.9 0.00 0.00 0.00 6 1012.5
20260506234625 17 175 11.3 20.9 0.00 0.00 0.00 6 1012.5
20260506234525 17 174 9.7 20.9 0.00 0.00 0.00 6 1012.5
20260506234404 17 172 9.7 20.9 0.00 0.00 0.00 7 1012.5
20260506234304 17 171 9.7 20.9 0.00 0.00 0.00 7 1012.5
20260506234225 17 173 9.7 19.3 0.00 0.00 0.00 7 1012.5
20260506234125 17 173 9.7 19.3 0.00 0.00 0.00 7 1012.5
20260506234004 17 170 11.3 22.5 0.00 0.00 0.00 5 1012.6
20260506233904 17 169 11.3 22.5 0.00 0.00 0.00 5 1012.6
20260506233804 17 169 11.3 22.5 0.00 0.00 0.00 5 1012.6
20260506233704 17 168 11.3 22.5 0.00 0.00 0.00 5 1012.6
20260506233604 17 168 11.3 22.5 0.00 0.00 0.00 4 1012.6
20260506233525 17 169 12.9 22.5 0.00 0.00 0.00 4 1012.6
20260506233425 17 169 12.9 22.5 0.00 0.00 0.00 6 1012.5
20260506233304 17 172 11.3 22.5 0.00 0.00 0.00 6 1012.6
20260506233204 17 170 11.3 22.5 0.00 0.00 0.00 6 1012.6
20260506233104 17 170 11.3 22.5 0.00 0.00 0.00 7 1012.5
20260506233004 17 173 11.3 22.5 0.00 0.00 0.00 7 1012.5
20260506232904 17 175 11.3 20.9 0.00 0.00 0.00 7 1012.5
20260506232804 17 173 9.7 19.3 0.00 0.00 0.00 6 1012.5
20260506232704 17 171 9.7 19.3 0.00 0.00 0.00 5 1012.6
20260506232604 17 170 9.7 19.3 0.00 0.00 0.00 5 1012.7
20260506232504 17 170 9.7 19.3 0.00 0.00 0.00 4 1012.7
20260506232404 17 167 9.7 20.9 0.00 0.00 0.00 5 1012.7
20260506232325 17 165 9.7 20.9 0.00 0.00 0.00 5 1012.6
20260506232204 17 165 9.7 20.9 0.00 0.00 0.00 6 1012.6
20260506232104 17 165 9.7 20.9 0.00 0.00 0.00 6 1012.4
20260506232004 17 164 9.7 20.9 0.00 0.00 0.00 6 1012.4
20260506231904 17 161 9.7 20.9 0.00 0.00 0.00 7 1012.4
20260506231804 17 160 9.7 20.9 0.00 0.00 0.00 7 1012.4
20260506231704 17 161 9.7 20.9 0.00 0.00 0.00 5 1012.5
20260506231604 17 162 9.7 20.9 0.00 0.00 0.00 7 1012.5
20260506231504 17 162 9.7 20.9 0.00 0.00 0.00 8 1012.4
20260506231404 17 166 9.7 19.3 0.00 0.00 0.00 8 1012.4
20260506231304 17 166 9.7 19.3 0.00 0.00 0.00 8 1012.4
20260506231204 17 166 8.0 17.7 0.00 0.00 0.00 8 1012.5
20260506231104 17 166 6.4 17.7 0.00 0.00 0.00 8 1012.5
20260506231004 17 164 6.4 17.7 0.00 0.00 0.00 7 1012.6
20260506230904 17 167 6.4 17.7 0.00 0.00 0.00 6 1012.7
20260506230804 17 167 8.0 17.7 0.00 0.00 0.00 7 1012.6
20260506230725 17 168 8.0 17.7 0.00 0.00 0.00 8 1012.7
20260506230604 17 166 6.4 20.9 0.00 0.00 0.00 9 1012.6
20260506230504 17 163 6.4 20.9 0.00 0.00 0.00 9 1012.6
20260506230405 17 161 8.0 20.9 0.00 0.00 0.00 7 1012.5
20260506230304 17 161 8.0 20.9 0.00 0.00 0.00 6 1012.4
20260506230204 17 159 9.7 20.9 0.00 0.00 0.00 7 1012.4
20260506230104 17 158 11.3 20.9 0.00 0.00 0.00 9 1012.4
20260506230004 17 159 11.3 20.9 0.00 0.00 0.00 9 1012.4
20260506225904 17 158 11.3 20.9 0.00 0.00 0.00 9 1012.4
20260506225804 17 158 9.7 20.9 0.00 0.00 0.00 9 1012.5
20260506225704 17 156 9.7 20.9 0.00 0.00 0.00 8 1012.5
20260506225604 17 156 9.7 24.1 0.00 0.00 0.00 8 1012.4
20260506225504 17 155 9.7 24.1 0.00 0.00 0.00 10 1012.5
20260506225404 17 153 9.7 24.1 0.00 0.00 0.00 10 1012.4
20260506225305 17 153 9.7 24.1 0.00 0.00 0.00 11 1012.4
20260506225204 17 155 9.7 24.1 0.00 0.00 0.00 10 1012.4
20260506225104 17 156 9.7 24.1 0.00 0.00 0.00 9 1012.4
20260506225004 17 156 11.3 24.1 0.00 0.00 0.00 8 1012.4
20260506224904 17 155 11.3 24.1 0.00 0.00 0.00 8 1012.5
20260506224804 17 155 11.3 24.1 0.00 0.00 0.00 8 1012.5
20260506224704 17 156 11.3 24.1 0.00 0.00 0.00 9 1012.5
20260506224604 17 157 12.9 24.1 0.00 0.00 0.00 10 1012.5
20260506224504 17 159 12.9 24.1 0.00 0.00 0.00 11 1012.5
20260506224404 17 160 12.9 24.1 0.00 0.00 0.00 10 1012.4
20260506224304 17 160 12.9 24.1 0.00 0.00 0.00 12 1012.4
20260506224204 17 158 12.9 24.1 0.00 0.00 0.00 12 1012.4
20260506224104 17 159 12.9 24.1 0.00 0.00 0.00 12 1012.3
20260506224004 17 158 11.3 24.1 0.00 0.00 0.00 11 1012.3
20260506223904 17 160 11.3 24.1 0.00 0.00 0.00 12 1012.3
20260506223804 17 162 11.3 24.1 0.00 0.00 0.00 12 1012.3
20260506223704 17 162 11.3 24.1 0.00 0.00 0.00 13 1012.2
20260506223625 17 162 11.3 24.1 0.00 0.00 0.00 13 1012.2
20260506223525 17 161 11.3 27.4 0.00 0.00 0.00 14 1012.2
20260506223404 17 160 11.3 27.4 0.00 0.00 0.00 13 1012.2
20260506223304 17 161 11.3 27.4 0.00 0.00 0.00 14 1012.2
20260506223204 17 161 11.3 27.4 0.00 0.00 0.00 13 1012.2
20260506223104 17 163 11.3 27.4 0.00 0.00 0.00 14 1012.3
20260506223004 17 163 11.3 27.4 0.00 0.00 0.00 15 1012.2
20260506222904 17 163 11.3 27.4 0.00 0.00 0.00 13 1012.3
20260506222804 17 161 12.9 27.4 0.00 0.00 0.00 14 1012.3
20260506222704 17 161 11.3 27.4 0.00 0.00 0.00 16 1012.3
20260506222604 17 162 11.3 27.4 0.00 0.00 0.00 16 1012.3
20260506222504 17 163 11.3 24.1 0.00 0.00 0.00 16 1012.4
20260506222404 17 162 12.9 24.1 0.00 0.00 0.00 17 1012.4
20260506222306 17 166 12.9 24.1 0.00 0.00 0.00 17 1012.4
20260506222204 17 169 12.9 24.1 0.00 0.00 0.00 17 1012.4
20260506222104 17 169 12.9 27.4 0.00 0.00 0.00 18 1012.4
20260506222004 17 169 12.9 27.4 0.00 0.00 0.00 17 1012.4
20260506221904 17 169 12.9 27.4 0.00 0.00 0.00 16 1012.4
20260506221804 17 169 14.5 27.4 0.00 0.00 0.00 15 1012.4
20260506221704 17 170 14.5 27.4 0.00 0.00 0.00 16 1012.4
20260506221604 17 171 14.5 27.4 0.00 0.00 0.00 16 1012.4
20260506221504 17 170 14.5 27.4 0.00 0.00 0.00 16 1012.4
20260506221404 17 170 12.9 27.4 0.00 0.00 0.00 20 1012.4
20260506221304 17 168 11.3 27.4 0.00 0.00 0.00 20 1012.4
20260506221204 17 166 11.3 27.4 0.00 0.00 0.00 20 1012.4
20260506221125 17 164 11.3 25.7 0.00 0.00 0.00 19 1012.4
20260506221004 17 166 11.3 24.1 0.00 0.00 0.00 21 1012.3
20260506220904 17 168 11.3 27.4 0.00 0.00 0.00 20 1012.4
20260506220825 17 169 9.7 27.4 0.00 0.00 0.00 20 1012.3
20260506220704 17 169 8.0 27.4 0.00 0.00 0.00 17 1012.3
20260506220604 17 169 9.7 27.4 0.00 0.00 0.00 17 1012.2
20260506220504 17 171 9.7 27.4 0.00 0.00 0.00 19 1012.2
20260506220404 17 170 9.7 27.4 0.00 0.00 0.00 18 1012.2
20260506220304 17 169 11.3 27.4 0.00 0.00 0.00 19 1012.2
20260506220204 17 168 11.3 27.4 0.00 0.00 0.00 19 1012.2
20260506220104 17 167 11.3 27.4 0.00 0.00 0.00 21 1012.2
20260506220004 17 169 11.3 27.4 0.00 0.00 0.00 22 1012.2
20260506215904 17 167 11.3 27.4 0.00 0.00 0.00 22 1012.2
20260506215825 17 167 12.9 27.4 0.00 0.00 0.00 22 1012.2
20260506215704 17 168 12.9 27.4 0.00 0.00 0.00 19 1012.2
20260506215625 17 169 14.5 27.4 0.00 0.00 0.00 19 1012.2
20260506215504 17 168 14.5 27.4 0.00 0.00 0.00 19 1012.3
20260506215404 17 168 14.5 27.4 0.00 0.00 0.00 20 1012.2
20260506215306 17 169 14.5 27.4 0.00 0.00 0.00 21 1012.2
20260506215225 17 170 12.9 27.4 0.00 0.00 0.00 21 1012.2
20260506215104 17 170 12.9 27.4 0.00 0.00 0.00 19 1012.2
20260506215004 17 168 14.5 27.4 0.00 0.00 0.00 21 1012.2
20260506214904 17 167 14.5 29.0 0.00 0.00 0.00 21 1012.2
20260506214804 17 167 14.5 29.0 0.00 0.00 0.00 21 1012.2
20260506214704 17 168 12.9 29.0 0.00 0.00 0.00 21 1012.1
20260506214604 17 169 12.9 29.0 0.00 0.00 0.00 21 1012.2
20260506214503 17 171 12.9 29.0 0.00 0.00 0.00 19 1012.1
20260506214404 17 174 12.9 29.0 0.00 0.00 0.00 20 1012.1
20260506214304 17 173 14.5 29.0 0.00 0.00 0.00 21 1012.1
20260506214204 17 171 14.5 29.0 0.00 0.00 0.00 22 1012.0
20260506214104 17 172 16.1 29.0 0.00 0.00 0.00 21 1012.0
20260506214004 17 172 16.1 29.0 0.00 0.00 0.00 23 1012.0
20260506213904 17 172 14.5 25.7 0.00 0.00 0.00 23 1012.0
20260506213804 17 173 14.5 25.7 0.00 0.00 0.00 22 1012.0
20260506213704 17 171 14.5 24.1 0.00 0.00 0.00 23 1012.1
20260506213604 17 171 14.5 24.1 0.00 0.00 0.00 23 1012.2
20260506213504 17 171 14.5 24.1 0.00 0.00 0.00 24 1012.2
20260506213404 17 168 14.5 24.1 0.00 0.00 0.00 24 1012.2
20260506213304 17 168 14.5 24.1 0.00 0.00 0.00 25 1012.2
20260506213204 17 170 14.5 24.1 0.00 0.00 0.00 25 1012.2
20260506213104 17 171 12.9 24.1 0.00 0.00 0.00 25 1012.3
20260506213004 17 172 11.3 24.1 0.00 0.00 0.00 25 1012.3
20260506212904 17 172 9.7 24.1 0.00 0.00 0.00 24 1012.3
20260506212804 17 171 9.7 24.1 0.00 0.00 0.00 25 1012.4
20260506212704 18 173 8.0 24.1 0.00 0.00 0.00 26 1012.2
20260506212604 18 172 6.4 22.5 0.00 0.00 0.00 26 1012.3
20260506212504 18 172 6.4 22.5 0.00 0.00 0.00 25 1012.2
20260506212404 18 174 4.8 20.9 0.00 0.00 0.00 24 1012.3
20260506212306 18 178 3.2 20.9 0.00 0.00 0.00 24 1012.3
20260506212225 18 181 1.6 20.9 0.00 0.00 0.00 24 1012.3
20260506212104 18 173 1.6 17.7 0.00 0.00 0.00 25 1012.3
20260506212025 18 174 1.6 17.7 0.00 0.00 0.00 25 1012.4
20260506211904 18 165 3.2 17.7 0.00 0.00 0.00 28 1012.4
20260506211804 18 157 3.2 25.7 0.00 0.00 0.00 26 1012.4
20260506211704 18 156 4.8 25.7 0.00 0.00 0.00 27 1012.4
20260506211625 18 155 4.8 25.7 0.00 0.00 0.00 27 1012.3
20260506211504 18 155 6.4 25.7 0.00 0.00 0.00 26 1012.4
20260506211404 18 156 8.0 25.7 0.00 0.00 0.00 26 1012.4
20260506211304 18 156 9.7 25.7 0.00 0.00 0.00 27 1012.3
20260506211204 18 157 9.7 25.7 0.00 0.00 0.00 26 1012.3
20260506211104 18 157 9.7 25.7 0.00 0.00 0.00 27 1012.3
20260506211025 18 157 9.7 25.7 0.00 0.00 0.00 27 1012.5
20260506210904 18 159 8.0 25.7 0.00 0.00 0.00 28 1012.5
20260506210825 18 160 6.4 22.5 0.00 0.00 0.00 27 1012.5
20260506210704 18 163 6.4 22.5 0.00 0.00 0.00 27 1012.5
20260506210604 18 164 4.8 22.5 0.00 0.00 0.00 27 1012.4
20260506210504 18 161 4.8 22.5 0.00 0.00 0.00 25 1012.4
20260506210404 18 159 4.8 24.1 0.00 0.00 0.00 25 1012.3
20260506210304 18 159 3.2 24.1 0.00 0.00 0.00 25 1012.3
20260506210204 18 157 3.2 24.1 0.00 0.00 0.00 25 1012.4
20260506210104 18 157 3.2 24.1 0.00 0.00 0.00 24 1012.4
20260506210004 18 158 3.2 24.1 0.00 0.00 0.00 23 1012.4
20260506205904 18 159 3.2 24.1 0.00 0.00 0.00 25 1012.4
20260506205804 18 156 3.2 24.1 0.00 0.00 0.00 26 1012.5
20260506205704 18 155 3.2 24.1 0.00 0.00 0.00 26 1012.5
20260506205604 18 153 3.2 24.1 0.00 0.00 0.00 26 1012.5
20260506205504 18 156 3.2 24.1 0.00 0.00 0.00 26 1012.6
20260506205404 18 160 1.6 14.5 0.00 0.00 0.00 24 1012.5
20260506205306 18 161 3.2 14.5 0.00 0.00 0.00 24 1012.6
20260506205204 18 161 3.2 14.5 0.00 0.00 0.00 24 1012.6
20260506205125 18 161 3.2 14.5 0.00 0.00 0.00 24 1012.6
20260506205004 18 166 3.2 14.5 0.00 0.00 0.00 25 1012.7
20260506204904 18 166 3.2 24.1 0.00 0.00 0.00 25 1012.7
20260506204804 18 165 3.2 24.1 0.00 0.00 0.00 26 1012.7
20260506204704 18 165 4.8 24.1 0.00 0.00 0.00 26 1012.6
20260506204604 18 165 4.8 24.1 0.00 0.00 0.00 27 1012.6
20260506204504 18 167 6.4 24.1 0.00 0.00 0.00 28 1012.6
20260506204404 18 168 8.0 24.1 0.00 0.00 0.00 27 1012.7
20260506204304 18 168 9.7 24.1 0.00 0.00 0.00 26 1012.6
20260506204204 18 168 9.7 24.1 0.00 0.00 0.00 26 1012.5
20260506204104 18 167 11.3 24.1 0.00 0.00 0.00 27 1012.5
20260506204004 18 165 11.3 24.1 0.00 0.00 0.00 27 1012.5
20260506203904 18 164 11.3 27.4 0.00 0.00 0.00 27 1012.6
20260506203804 19 163 12.9 27.4 0.00 0.00 0.00 27 1012.5
20260506203725 19 163 12.9 27.4 0.00 0.00 0.00 27 1012.5
20260506203604 19 163 12.9 27.4 0.00 0.00 0.00 28 1012.5
20260506203504 19 163 11.3 27.4 0.00 0.00 0.00 28 1012.5
20260506203404 19 161 11.3 27.4 0.00 0.00 0.00 27 1012.5
20260506203304 19 159 9.7 27.4 0.00 0.00 0.00 25 1012.5
20260506203204 20 160 9.7 27.4 0.00 0.00 0.00 25 1012.5
20260506203104 20 159 9.7 27.4 0.00 0.00 0.00 23 1012.5
20260506203004 20 159 11.3 27.4 0.00 0.00 0.00 23 1012.4
20260506202904 20 159 11.3 24.1 0.00 0.00 0.00 23 1012.4
20260506202804 20 160 12.9 24.1 0.00 0.00 0.00 22 1012.4
20260506202704 20 162 12.9 24.1 0.00 0.00 0.00 23 1012.4
20260506202604 20 161 11.3 24.1 0.00 0.00 0.00 23 1012.4
20260506202504 20 160 12.9 24.1 0.00 0.00 0.00 21 1012.3
20260506202404 20 162 12.9 24.1 0.00 0.00 0.00 22 1012.4
20260506202306 20 162 12.9 24.1 0.00 0.00 0.00 23 1012.4
20260506202204 20 161 12.9 24.1 0.00 0.00 0.00 21 1012.4
20260506202104 20 162 12.9 22.5 0.00 0.00 0.00 22 1012.3
20260506202025 20 163 14.5 22.5 0.00 0.00 0.00 22 1012.3
20260506201904 20 165 12.9 25.7 0.00 0.00 0.00 23 1012.3
20260506201804 20 166 12.9 25.7 0.00 0.00 0.00 23 1012.3
20260506201704 20 165 11.3 25.7 0.00 0.00 0.00 21 1012.2
20260506201604 20 165 11.3 25.7 0.00 0.00 0.00 22 1012.2
20260506201503 20 167 9.7 25.7 0.00 0.00 0.00 21 1012.2
20260506201404 20 165 9.7 25.7 0.00 0.00 0.00 22 1012.1
20260506201304 20 168 9.7 25.7 0.00 0.00 0.00 22 1012.1
20260506201225 20 169 8.0 25.7 0.00 0.00 0.00 22 1012.2
20260506201125 20 167 8.0 25.7 0.00 0.00 0.00 22 1012.1
20260506201006 20 164 8.0 24.1 0.00 0.00 0.00 20 1012.2
20260506200905 20 164 8.0 22.5 0.00 0.00 0.00 19 1012.2
20260506200804 20 163 9.7 24.1 0.00 0.00 0.00 20 1012.2
20260506200704 20 164 9.7 27.4 0.00 0.00 0.00 20 1012.2
20260506200604 20 165 11.3 27.4 0.00 0.00 0.00 17 1012.2
20260506200504 20 165 11.3 27.4 0.00 0.00 0.00 17 1012.1
20260506200404 20 166 9.7 27.4 0.00 0.00 0.00 17 1012.1
20260506200304 20 163 9.7 27.4 0.00 0.00 0.00 17 1012.1
20260506200204 20 164 9.7 27.4 0.00 0.00 0.00 19 1012.1
20260506200104 20 166 8.0 27.4 0.00 0.00 0.00 20 1012.0
20260506200004 20 167 6.4 27.4 0.00 0.00 0.00 22 1012.0
20260506195904 20 166 4.8 27.4 0.00 0.00 0.00 22 1012.0
20260506195804 20 169 3.2 27.4 0.00 0.00 0.00 23 1012.0
20260506195704 20 170 3.2 24.1 0.00 0.00 0.00 23 1012.0
20260506195604 20 167 1.6 24.1 0.00 0.00 0.00 23 1012.0
20260506195504 20 168 1.6 24.1 0.00 0.00 0.00 23 1012.0
20260506195404 20 175 3.2 24.1 0.00 0.00 0.00 24 1012.0
20260506195306 20 175 3.2 24.1 0.00 0.00 0.00 23 1012.0
20260506195204 20 172 4.8 25.7 0.00 0.00 0.00 24 1012.0
20260506195104 20 169 4.8 27.4 0.00 0.00 0.00 24 1012.0
20260506195003 21 168 4.8 27.4 0.00 0.00 0.00 24 1012.0
20260506194904 21 170 4.8 27.4 0.00 0.00 0.00 24 1012.0
20260506194804 21 169 6.4 27.4 0.00 0.00 0.00 24 1012.1
20260506194704 21 172 6.4 27.4 0.00 0.00 0.00 25 1012.0
20260506194604 21 176 8.0 27.4 0.00 0.00 0.00 25 1012.0
20260506194504 21 175 8.0 29.0 0.00 0.00 0.00 25 1012.0
20260506194404 21 173 8.0 29.0 0.00 0.00 0.00 26 1011.9
20260506194325 21 175 9.7 29.0 0.00 0.00 0.00 26 1012.0
20260506194204 21 177 8.0 29.0 0.00 0.00 0.00 28 1011.9
20260506194104 21 177 9.7 29.0 0.00 0.00 0.00 28 1011.9
20260506194025 21 176 9.7 29.0 0.00 0.00 0.00 28 1012.0
20260506193904 21 174 11.3 29.0 0.00 0.00 0.00 28 1012.0
20260506193825 21 175 11.3 29.0 0.00 0.00 0.00 27 1011.9
20260506193725 21 175 11.3 29.0 0.00 0.00 0.00 28 1011.9
20260506193625 21 176 11.3 29.0 0.00 0.00 0.00 27 1011.9
20260506193504 21 175 11.3 25.7 0.00 0.00 0.00 26 1011.8
20260506193425 21 175 11.3 25.7 0.00 0.00 0.00 27 1011.8
20260506193304 21 172 11.3 25.7 0.00 0.00 0.00 26 1011.8
20260506193204 21 169 11.3 25.7 0.00 0.00 0.00 28 1011.9
20260506193104 21 169 12.9 25.7 0.00 0.00 0.00 28 1011.9
20260506193025 21 168 12.9 25.7 0.00 0.00 0.00 27 1011.9
20260506192904 21 167 14.5 25.7 0.00 0.00 0.00 27 1011.8
20260506192825 22 166 14.5 25.7 0.00 0.00 0.00 27 1011.8
20260506192704 21 164 12.9 25.7 0.00 0.00 0.00 27 1011.9
20260506192604 21 162 12.9 25.7 0.00 0.00 0.00 26 1011.9
20260506192504 21 160 12.9 25.7 0.00 0.00 0.00 28 1011.9
20260506192404 21 158 11.3 25.7 0.00 0.00 0.00 28 1011.9
20260506192305 21 158 9.7 25.7 0.00 0.00 0.00 27 1011.9
20260506192204 22 159 9.7 25.7 0.00 0.00 0.00 28 1011.9
20260506192125 22 158 6.4 25.7 0.00 0.00 0.00 29 1011.9
20260506192004 22 159 6.4 25.7 0.00 0.00 0.00 29 1011.9
20260506191925 22 161 4.8 24.1 0.00 0.00 0.00 28 1011.8
20260506191804 22 159 3.2 22.5 0.00 0.00 0.00 26 1011.9
20260506191725 22 159 4.8 17.7 0.00 0.00 0.00 26 1011.9
20260506191604 22 158 4.8 17.7 0.00 0.00 0.00 27 1011.9
20260506191504 22 159 3.2 17.7 0.00 0.00 0.00 27 1012.0
20260506191404 22 164 3.2 17.7 0.00 0.00 0.00 27 1012.1
20260506191304 22 163 3.2 17.7 0.00 0.00 0.00 26 1012.1
20260506191204 22 161 3.2 17.7 0.00 0.00 0.00 27 1012.1
20260506191104 22 161 3.2 17.7 0.00 0.00 0.00 28 1012.1
20260506191025 22 161 1.6 17.7 0.00 0.00 0.00 27 1012.1
20260506190925 22 161 1.6 17.7 0.00 0.00 0.00 28 1012.1
20260506190804 23 157 1.6 16.1 0.00 0.00 0.00 28 1012.0
20260506190704 23 155 1.6 16.1 0.00 0.00 0.00 27 1012.0
20260506190604 23 158 1.6 12.9 0.00 0.00 0.00 25 1012.0
20260506190525 23 158 1.6 12.9 0.00 0.00 0.00 25 1012.0
20260506190404 23 158 1.6 12.9 0.00 0.00 0.00 25 1011.9
20260506190304 23 158 0.0 12.9 0.00 0.00 0.00 24 1011.9
20260506190225 23 166 0.0 11.3 0.00 0.00 0.00 24 1011.9
20260506190104 23 163 0.0 11.3 0.00 0.00 0.00 23 1011.9